GFSGBSN_850_dewp_210.txt.gz
Dewpoint
0 -0 -1 -1 -1 0 -2 1 -0 -1 0 -2 -10 -13 -15 -13 -11 -8 -7 2 8 9 9 9 9 4 -2 3 0 0 1 -0 1 1 2 1 -0 -2 -2 -4 -4 -1 -7 -6 -5 -7 -6
1 -1 -4 -2 -2 -1 1 -2 1 -1 -4 -4 -5 -6 -10 -14 -14 -12 -7 -5 -2 7 9 9 9 8 4 2 -2 -6 -2 -0 1 2 1 1 1 -1 -1 -3 -2 -4 -3 -5 -3 -2 -3
-2 -3 -4 -5 -5 -3 -1 -2 -0 1 -2 -5 -5 -3 -2 -6 -10 -11 -10 -11 -4 -3 8 9 9 9 7 2 -1 -6 -6 -5 -2 1 1 1 2 1 -0 -2 -1 -1 -1 -2 -1 0 -1
-3 -3 -4 -1 -1 -5 -4 -2 -2 0 -3 -5 -5 -5 -4 -4 -5 -7 -11 -9 -11 -5 -1 8 8 8 7 5 3 -1 -2 -1 -2 -1 -0 1 2 3 1 1 2 1 -0 -0 -5 -4 -1
-2 -2 -1 -2 -1 -2 -3 -2 -1 -0 -1 -4 -5 -5 -2 -3 -3 -4 -7 -10 -9 -9 -3 3 8 7 7 6 6 4 -3 -1 2 2 2 2 2 2 3 3 2 2 1 -1 -3 -5 -3
-1 -1 -2 -2 -2 -3 -3 -1 -2 -1 -0 -3 -5 -5 -3 -1 -3 -4 -5 -9 -8 -3 0 3 7 7 7 5 5 5 3 0 -1 -0 1 1 2 2 3 4 4 0 1 1 -1 -3 -0
-2 -2 -3 -2 -2 -3 -3 -3 -2 -0 0 -2 -1 -3 -3 -2 -2 -3 -5 -2 1 1 3 1 6 6 3 5 4 4 2 2 0 -2 -2 -0 3 3 1 1 1 -0 -1 0 -2 -4 0
-2 -2 -2 -2 -2 -5 -4 -4 -2 0 0 -1 -2 -3 -3 -1 -1 -2 -4 -1 0 3 3 1 1 6 5 3 2 3 3 1 1 -0 -4 -2 4 -1 -2 -1 2 3 3 2 -2 -3 1
-3 -2 -3 -3 -3 -3 -4 -2 -2 -0 -0 -1 -3 -2 -2 -1 -2 -2 -2 -2 -6 -4 1 -1 1 -2 5 3 3 2 2 0 0 1 -3 -2 -3 -3 -2 -1 2 4 3 1 1 -1 1
-3 -5 -7 -6 -5 -5 -4 -4 -3 -1 -1 -2 -3 -2 -2 -3 -3 -1 -1 -4 -4 -1 1 -3 -2 1 0 4 4 3 2 1 -0 0 -1 -3 -5 -5 -1 1 1 4 -0 0 1 3 5
-5 -7 -7 -6 -4 -4 -4 -4 -4 -2 -2 -3 -5 -6 -6 -7 -1 -1 -1 -2 -4 0 1 -10 -6 -1 1 3 -1 2 3 2 1 0 -1 -0 -3 -3 -3 1 -0 1 -1 -1 1 4 3
-5 -6 -6 -7 -5 -4 -4 -5 -4 -4 -3 -3 -6 -6 -5 -3 -2 -1 -3 -5 -5 2 0 -6 -3 2 3 4 2 -1 2 2 2 2 -1 -1 -4 -4 -3 -4 -2 -1 1 1 1 3 6
-5 -5 -6 -5 -6 -6 -5 -5 -4 -3 -3 -3 -3 -7 -4 -1 -3 -4 -4 -2 -1 2 -5 -1 1 0 3 5 4 1 4 5 6 7 7 2 1 -3 -4 -2 -3 1 3 5 6 7 7
-4 -5 -6 -8 -5 -6 -7 -8 -5 -4 -3 -3 -2 -6 -4 -2 -5 -4 -3 -2 -1 -4 -2 -0 1 1 3 2 2 4 3 5 4 4 4 5 5 0 -3 -1 -1 -0 3 5 7 4 2
-5 -4 -3 -5 -7 -7 -6 -7 -8 -6 -3 -4 -5 -5 -3 -4 -5 -5 -2 -1 -4 -6 -9 -8 -2 3 5 2 2 3 4 4 3 3 4 3 3 -2 -2 -2 -1 -0 3 2 4 1 4
-3 -4 -5 -4 -6 -6 -6 -6 -6 -6 -6 -4 -4 -2 -3 -8 -7 -2 -1 -2 -4 -9 -10 -6 2 2 3 3 5 5 4 2 1 -0 0 1 3 -1 -1 -2 -2 -0 -1 6 6 10 8
-3 -4 -4 -5 -6 -6 -6 -7 -7 -6 -5 -3 -3 -2 -3 -5 -6 -2 -1 -4 -5 -9 -11 -6 -4 2 2 3 5 5 3 1 1 -0 -1 2 2 1 -2 1 1 1 2 3 5 6 9
-3 -2 -3 -3 -4 -5 -6 -6 -7 -7 -5 -3 -2 -0 -4 -3 -1 -3 -1 -5 -7 -9 -11 -9 -8 -7 -2 -2 2 3 5 1 -2 1 3 2 4 7 2 -2 -1 -0 2 3 9 10 8
-3 -3 -3 -3 -3 -4 -4 -5 -6 -5 -5 -2 -2 -2 -3 -2 -2 -1 -1 -2 -5 -7 -9 -9 -7 -8 -5 -1 2 0 1 2 -0 2 2 2 6 9 6 2 1 2 2 2 6 10 10
-3 -3 -2 -2 -3 -4 -4 -4 -4 -4 -5 -3 -2 -1 -2 -1 -3 -3 -2 -2 -3 -6 -7 -8 -7 -8 -6 -3 -5 -0 -2 -5 -2 -1 -1 2 6 6 8 4 2 6 4 3 6 9 8
-3 -2 -3 -3 -3 -4 -4 -4 -4 -4 -3 -3 -2 -1 -3 -1 -1 -2 -4 -3 -3 -2 -6 -7 -5 -5 -4 -1 -3 -2 -5 -8 -8 -6 -1 3 8 7 5 2 1 3 4 4 5 6 8
-3 -3 -3 -3 -3 -3 -4 -4 -3 -3 -3 -2 -2 -1 -3 -5 -6 -2 -3 -2 -3 -4 -5 -4 -3 -5 -5 -2 -3 -1 -3 -4 -3 -8 -3 0 5 7 7 3 2 3 1 2 3 4 4
-3 -3 -2 -3 -3 -3 -3 -4 -4 -4 -3 -1 -1 -1 -1 -4 -3 -3 -3 -3 -4 -6 -5 -6 -6 -4 -3 -3 -6 -5 -5 -5 -2 1 0 1 2 4 7 5 6 7 5 3 2 3 4
-4 -4 -3 -3 -3 -3 -3 -4 -4 -4 -3 -2 -2 -1 -1 -1 -2 -3 -5 -4 -3 -5 -2 -6 -6 -4 -5 -5 -5 -4 -5 -4 -3 -2 -1 3 3 4 4 5 8 6 2 1 3 2 2
-4 -3 -3 -3 -3 -3 -2 -2 -3 -4 -4 -2 -1 -2 -1 -1 -4 -5 -5 -5 -6 -6 -5 -5 -6 -6 -5 -2 0 0 0 1 0 1 -0 1 3 4 5 7 6 4 2 3 4 5 2
-4 -3 -3 -3 -3 -3 -3 -2 -2 -3 -3 -1 -2 -2 -1 -1 -2 -5 -4 -5 -2 -1 -0 -2 -5 -4 -2 0 0 -0 -1 -2 -1 4 -0 0 3 2 3 5 7 3 -0 0 2 8 2
-5 -4 -3 -4 -4 -5 -5 -5 -5 -5 -4 -2 -2 -1 -1 -1 -1 -3 -2 -2 -4 -3 -0 -3 -2 -2 -2 1 1 0 -1 -3 -1 -1 5 5 4 4 3 4 6 1 1 2 8 7 3
-4 -5 -5 -5 -5 -5 -5 -5 -5 -6 -5 -4 -3 -2 -1 -1 -1 -2 -3 -2 -3 -2 0 -3 -1 0 1 1 1 -1 -1 -2 -1 -2 1 3 4 6 5 6 7 2 2 6 5 1 3
-3 -4 -5 -6 -6 -6 -5 -6 -6 -5 -3 -2 -2 -1 -1 -1 -1 -1 -1 -2 -2 -3 -2 -1 -1 -2 -2 -1 -1 -2 -1 -1 0 3 2 4 5 8 6 7 4 1 3 3 1 3 1

GFSGBSN_850_dewp_216.txt.gz
Dewpoint
-1 -1 -2 -3 -4 -4 -5 -5 -4 -1 -0 -1 1 -2 -4 -6 -10 -12 -11 -7 -5 -3 2 9 9 9 8 5 -1 -2 -3 -1 1 2 3 0 -3 -4 -4 -5 -6 -6 -7 -6 -7 -9 -11
-1 -3 -3 -1 -1 -1 -4 -6 -8 -8 -5 -2 -1 1 -3 -5 -7 -9 -12 -13 -11 -7 -4 1 8 9 9 9 3 -2 -3 -3 1 1 0 -1 -2 -4 -5 -6 -6 -7 -7 -8 -7 -7 -9
-2 -2 -4 -2 -1 -1 -2 -3 -4 -5 -9 -4 -3 1 0 -5 -5 -6 -8 -11 -14 -13 -9 -4 5 8 9 9 6 1 -1 -2 -2 0 1 0 -1 -2 -3 -4 -4 -5 -4 -5 -6 -7 -7
-1 -3 -2 -1 -1 -1 -2 -2 -3 -6 -8 -6 -3 -2 1 -3 -4 -4 -6 -7 -9 -14 -13 -10 -3 7 8 8 6 6 4 -1 -1 -2 -3 0 1 0 -0 -1 -1 -2 -3 -1 -4 -5 -6
-3 -2 -2 -1 -2 -2 -2 -2 -2 -5 -7 -6 -3 -1 0 -0 -3 -3 -4 -6 -7 -9 -15 -13 -4 4 7 7 7 6 7 2 0 1 -1 -2 -1 0 0 1 2 -0 1 -0 -2 -6 -6
-2 -2 -3 -2 -1 -2 -1 -1 -2 -3 -4 -3 -2 -1 1 -1 -3 -3 -3 -6 -7 -7 -11 -3 0 5 4 6 5 6 5 6 3 0 0 -1 -4 -1 -0 1 4 1 -1 -2 -2 -4 -6
-12 -10 -7 -2 -2 -5 -6 -6 -3 -3 -4 -2 -2 1 1 -1 -3 -4 -5 -0 0 0 -2 -5 -4 -1 -3 3 4 6 6 5 5 5 2 -0 -1 -2 -2 -1 -2 -2 -3 -4 -5 -6 -4
-3 -6 -7 -3 -2 -5 -4 -5 -3 -5 -4 -2 0 1 1 0 -2 -4 -5 0 1 1 2 -3 -6 -4 -3 -4 3 5 5 6 4 5 3 2 2 -3 -5 -4 -2 -2 -2 -1 -3 -5 -5
-4 -5 -5 -4 -3 -2 -5 -6 -5 -5 -4 -3 -2 -0 0 0 -3 -5 -5 -1 -0 0 1 -2 -1 -4 -6 -4 -3 2 3 4 5 5 4 4 3 -1 -3 -4 -4 -3 -1 -0 -1 -3 -3
-11 -11 -6 -6 -6 -7 -8 -7 -5 -5 -4 -3 -3 -1 -0 -0 -3 -2 -1 -2 -1 -0 -2 -6 -8 -7 -4 -7 -6 -2 2 2 3 4 3 3 0 -0 -2 -2 -4 -2 -5 -4 -2 -1 2
-11 -12 -14 -6 -6 -6 -6 -7 -5 -5 -4 -2 -2 -1 -1 -1 0 0 -0 -0 -1 -0 2 -10 -10 -11 -10 -5 -9 -5 -2 2 2 3 1 3 3 1 1 -1 -4 -2 -5 -4 -4 -1 -0
-4 -4 -10 -8 -5 -8 -8 -6 -6 -5 -4 -3 -1 -3 -3 -4 -6 -4 -1 -1 -1 1 1 -8 -12 -10 -10 -8 -7 -10 -3 0 1 0 1 0 -1 -1 0 -1 -3 -4 -4 -2 -2 -2 2
-4 -3 -3 -5 -6 -6 -8 -5 -7 -7 -4 -3 -3 -2 -5 -2 -0 -1 -3 -2 -1 2 -6 -8 -10 -5 -8 -9 -6 -8 -8 2 3 5 5 2 2 -2 -2 -1 -2 -3 -1 3 4 3 3
-4 -4 -4 -3 -4 -6 -6 -8 -6 -7 -6 -4 -3 -2 -3 -2 -2 -1 -1 -2 -1 -4 -4 -9 -9 -9 -3 2 -1 -6 -6 -2 1 1 3 6 4 2 -1 -1 -0 -1 0 3 5 6 5
-3 -3 -3 -3 -3 -4 -8 -6 -6 -6 -7 -3 -3 -2 -1 -2 -1 -1 -1 -0 -4 -7 -10 -11 -12 -8 -5 -2 2 1 -4 -5 -2 4 5 3 2 -4 -3 -3 -2 1 1 -1 3 2 6
-3 -3 -3 -3 -3 -4 -5 -8 -6 -6 -6 -7 -1 -1 -2 -1 -3 -1 -0 -3 -3 -8 -11 -11 -7 -6 -4 -3 -0 3 3 2 -1 -4 3 3 5 -0 -4 -5 -3 -2 -1 3 3 7 8
-2 -2 -3 -3 -4 -3 -4 -6 -8 -6 -5 -6 -1 -1 -2 -1 -3 -0 -0 -2 -5 -9 -10 -9 -8 -8 -8 -8 -5 3 2 0 2 1 1 1 5 4 0 2 -1 -1 0 1 3 5 8
-3 -2 -3 -3 -4 -3 -3 -5 -6 -7 -6 -5 -2 -1 -2 -1 -1 -1 -1 -4 -7 -9 -11 -8 -6 -10 -10 -10 -9 -6 -0 1 -3 1 2 2 5 7 6 -0 -2 -0 -0 1 6 7 7
-4 -3 -3 -3 -4 -2 -2 -3 -5 -6 -6 -2 -2 -2 -2 -0 -0 -0 -1 -2 -6 -7 -8 -8 -9 -11 -12 -9 -5 -8 -5 0 1 2 2 1 2 5 6 5 2 2 2 3 4 4 8
-4 -4 -3 -3 -3 -3 -3 -4 -4 -4 -5 -3 -2 -1 -1 -1 -2 -2 -2 -1 -1 -6 -7 -9 -9 -10 -8 -5 -8 -6 -5 -7 -7 -1 -1 -0 1 2 4 3 2 4 3 1 4 8 8
-3 -3 -3 -3 -2 -2 -3 -4 -5 -4 -4 -3 -2 -2 -4 -2 -1 -2 -4 -4 -4 -3 -6 -7 -6 -6 -5 -3 -3 -4 -8 -9 -11 -11 -4 1 1 -1 -0 -1 -2 -1 0 3 2 5 9
-3 -4 -4 -3 -3 -3 -3 -4 -5 -4 -3 -2 -2 -2 -4 -4 -5 -3 -3 -2 -3 -5 -6 -3 -4 -7 -8 -5 -6 -3 -5 -4 -3 -4 -0 2 1 -1 2 -3 -4 1 2 2 3 3 3
-4 -3 -3 -3 -4 -3 -4 -4 -4 -4 -3 -2 -2 -2 -1 -3 -4 -3 -2 -3 -0 -4 -6 -8 -7 -6 -5 -6 -8 -7 -6 -4 -3 -2 -1 1 1 1 2 -3 1 1 -3 -2 0 2 2
-4 -3 -3 -3 -3 -3 -3 -3 -4 -4 -3 -2 -1 -1 -1 -0 -2 -3 -5 -6 -6 -6 -3 -3 -4 -2 -6 -8 -7 -5 -4 -5 -5 -4 -5 -0 1 1 2 -1 3 -4 -5 -5 -3 1 0
-5 -5 -3 -3 -3 -3 -3 -3 -3 -3 -3 -2 -3 -1 -1 0 -3 -4 -5 -6 -7 -6 -5 -6 -7 -7 -6 -2 2 1 0 1 -1 -1 -3 -3 -0 1 1 -1 -4 -7 -8 -8 -5 -1 -1
-2 -3 -4 -4 -4 -4 -5 -5 -5 -4 -3 -2 -2 -2 -1 -0 -1 -4 -3 -4 -2 -2 -1 -3 -5 -6 -5 -1 0 -0 -1 -2 -2 -1 -3 -2 -2 1 1 1 -1 -7 -10 -10 -8 -1 -3
-3 -3 -3 -3 -4 -5 -5 -5 -5 -5 -5 -5 -2 -2 -1 -1 -1 -2 -1 -1 -4 -3 -0 -1 -3 -3 -2 1 1 1 1 -4 -1 -2 -2 -1 -1 2 2 2 -2 -9 -11 -12 -2 -0 -1
-6 -4 -4 -4 -4 -4 -5 -6 -6 -6 -6 -5 -5 -3 -1 -1 -2 -2 -2 -2 -2 -2 0 -2 -2 -1 1 2 1 0 0 -1 -2 -3 -2 -1 -0 1 2 3 2 -7 -9 -2 -0 3 4
-8 -7 -7 -7 -6 -6 -5 -5 -5 -6 -6 -6 -4 -3 -2 -1 -1 -1 -1 -1 -1 -2 -1 -0 0 -1 0 2 1 0 0 -1 -1 1 -5 -1 -2 -0 3 0 -4 -6 -2 1 2 2 4

GFSGBSN_850_dewp_219.txt.gz
Dewpoint
-1 -2 -3 -4 -2 -2 -1 -1 -5 -7 -8 -7 -3 -1 1 -1 -4 -6 -11 -14 -12 -5 -1 -0 3 9 9 8 6 1 -3 -3 -1 -0 1 -1 -0 -1 -1 -3 -4 -3 -5 -6 -7 -7 -6
-1 -1 -2 -2 -2 -2 -1 -2 -3 -4 -5 -6 -8 -4 -2 2 -2 -5 -6 -9 -14 -15 -10 -4 -2 7 9 9 7 3 -3 -2 -3 1 2 3 1 -1 -3 -3 -4 -5 -5 -6 -7 -7 -7
-2 -1 -2 -2 -1 -1 -2 -3 -5 -7 -9 -10 -11 -8 -3 -1 2 -3 -5 -6 -8 -13 -16 -13 -4 1 7 8 6 7 7 3 -1 -3 1 1 0 1 -1 -1 -3 -4 -3 -3 -4 -5 -5
-4 -3 -2 -2 -2 -3 -4 -4 -4 -5 -6 -11 -10 -10 -5 -2 1 -0 -4 -5 -6 -8 -12 -16 -11 -1 5 5 3 2 6 5 2 -1 -2 -1 -0 0 1 -0 0 1 0 1 -3 -4 -4
-4 -6 -6 -2 -3 -2 -2 -3 -3 -3 -4 -6 -9 -5 -6 -2 0 -0 -5 -4 -6 -6 -8 -13 -10 -4 3 2 1 -5 -2 5 1 -0 -1 -2 -3 -1 0 2 3 2 4 1 -1 -4 -4
-4 -8 -11 -9 -3 -2 -3 -4 -3 -4 -4 -4 -7 -4 -4 -1 1 -1 -4 -3 -6 -6 -8 -9 -6 3 -1 1 2 -3 -5 4 7 4 1 -0 -2 -2 -1 2 5 3 3 1 1 -2 -3
-5 -6 -6 -9 -10 -8 -7 -6 -7 -5 -6 -6 -4 -2 -1 -0 1 -1 -4 -5 -0 1 -2 -4 -4 -5 -3 0 -0 4 1 0 6 7 4 0 1 -0 -3 0 1 1 1 -1 -3 -3 -3
-9 -10 -9 -6 -3 -4 -3 -3 -7 -7 -7 -4 -2 -2 -3 1 1 -0 -2 -2 1 1 2 -0 -7 -4 -9 -11 -6 -5 4 7 6 8 6 6 3 -0 -4 -4 -1 1 1 -0 -3 -4 -4
-12 -14 -16 -16 -6 -3 -3 -5 -8 -6 -6 -4 -3 -3 -2 -2 0 -1 -3 -4 -1 -0 1 -1 -1 -0 -3 -5 -4 -3 -1 5 6 7 7 7 5 1 -1 -3 -3 -1 0 -0 -1 -3 -4
-4 -6 -6 -10 -9 -6 -7 -7 -8 -6 -5 -5 -3 -3 -2 -0 -0 -1 -2 0 0 0 -1 -5 -6 -4 -1 -2 -5 -5 -3 -2 7 7 5 6 4 3 2 1 -3 -3 -4 -2 -2 -1 1
-3 -4 -4 -4 -11 -7 -7 -10 -6 -7 -5 -5 -3 -2 -3 -0 0 -0 1 2 -0 -1 -1 -7 -10 -10 -8 -2 -7 -9 -6 -5 3 6 6 6 4 4 4 2 -0 -1 -3 -4 -4 -2 -2
-4 -5 -4 -3 -3 -10 -7 -8 -5 -7 -7 -4 -4 -2 -3 -2 -1 -0 -0 -1 -1 -2 -2 -6 -9 -7 -8 -3 -3 -7 -8 -6 -3 5 5 5 2 3 3 2 1 -1 -1 -2 -2 -2 2
-4 -3 -4 -4 -4 -3 -8 -6 -8 -6 -9 -5 -4 -3 -3 -5 -1 -1 -1 -2 -3 -3 -6 -7 -9 -10 -7 -5 -3 -4 -4 -5 -1 4 5 4 3 2 0 2 1 1 1 5 4 2 3
-3 -3 -3 -3 -4 -4 -4 -8 -7 -6 -7 -7 -4 -3 -3 -4 -3 -0 -3 -2 -3 -5 -3 -10 -9 -8 -8 1 -0 0 -2 -4 -7 -1 2 5 6 3 2 2 2 2 2 5 7 5 3
-2 -2 -3 -3 -3 -3 -4 -7 -7 -7 -7 -7 -4 -3 -3 -4 -3 -1 -2 -5 -6 -5 -10 -9 -8 -4 -1 -3 -0 -2 0 3 -6 -1 7 6 5 0 -1 -0 1 2 3 -0 3 1 4
-3 -3 -2 -3 -3 -4 -3 -5 -8 -7 -7 -6 -5 -1 -4 -4 -3 -3 -2 -4 -3 -7 -8 -8 -4 -6 -4 -7 -5 -2 0 2 1 -1 -1 5 8 4 2 -1 -0 2 -1 3 5 8 7
-4 -4 -3 -3 -3 -4 -3 -4 -7 -7 -6 -6 -5 -2 -3 -1 -1 -1 -2 -3 -3 -7 -8 -6 -5 -3 -4 -6 -6 -3 -1 -2 2 0 0 2 5 5 1 3 2 -0 -0 1 1 6 9
-3 -3 -3 -3 -4 -4 -4 -3 -6 -7 -7 -6 -2 -4 -2 -1 -1 -2 -3 -3 -6 -7 -7 -7 -7 -6 -6 -6 -7 -7 -4 -5 1 0 2 1 3 5 4 2 1 2 2 2 4 4 6
-3 -3 -4 -4 -4 -4 -3 -2 -4 -6 -7 -2 -3 -3 -2 -2 -0 -2 -4 -3 -3 -4 -5 -6 -6 -7 -7 -6 -4 -6 -6 -7 -1 -0 1 -0 1 1 0 3 3 4 2 2 3 7 6
-4 -4 -3 -3 -3 -3 -3 -3 -4 -5 -5 -5 -3 -4 -2 -2 -2 -1 -2 -3 -3 -4 -5 -7 -6 -7 -5 -4 -5 -4 -5 -6 -8 -1 -0 -1 1 0 1 -0 -1 2 1 0 2 6 8
-3 -4 -4 -3 -3 -3 -3 -3 -4 -5 -4 -4 -3 -4 -4 -5 -4 -2 -2 -2 -2 -3 -5 -6 -4 -4 -4 -3 -4 -3 -4 -4 -6 -3 -1 1 1 -0 -0 -2 -3 -0 -1 -1 2 3 6
-5 -3 -3 -4 -4 -4 -4 -4 -4 -4 -4 -3 -2 -3 -4 -3 -3 -3 -3 -1 -2 -3 -3 -3 -3 -4 -4 -3 -4 -3 -4 -4 -2 -3 0 1 0 0 1 -0 -1 -2 -0 0 -1 -2 -1
-5 -4 -3 -4 -3 -3 -3 -4 -3 -4 -3 -3 -3 -3 -2 -2 -3 -2 -3 -3 -3 -3 -1 -2 -2 -2 -2 -3 -5 -5 -6 -5 -3 -2 -1 1 2 1 0 -3 -1 2 -3 -4 -4 -4 -2
-3 -4 -4 -3 -3 -3 -3 -3 -3 -3 -3 -3 -2 -2 -1 -3 -3 -3 -3 -4 -4 -5 -3 -5 -5 -2 -3 -1 -1 -3 -3 -3 -2 -2 -3 -1 0 1 0 -1 1 -5 -9 -8 -6 -7 -8
-2 -2 -3 -4 -3 -3 -4 -4 -3 -2 -2 -2 -3 -1 -1 -1 -3 -3 -3 -3 -4 -4 -3 -3 -4 -5 -5 -3 0 -2 -3 -3 -3 -2 -2 -3 -2 -1 0 -1 -4 -7 -9 -9 -10 -10 -11
-3 -3 -2 -2 -3 -5 -4 -4 -5 -5 -5 -4 -3 -2 -1 -1 -1 -2 -2 -2 -1 -1 -2 -3 -4 -4 -4 -2 -4 -1 -1 -5 -4 -4 -2 -2 -2 -1 0 0 -0 -7 -10 -10 -10 -4 -9
-7 -6 -4 -3 -3 -3 -4 -5 -5 -5 -5 -5 -4 -4 -2 -1 -2 -2 -2 -2 -3 -2 -1 -2 -3 -2 -3 0 1 0 -1 -4 -2 -3 -4 -3 -4 0 -0 1 -0 -6 -8 -10 -3 -5 -10
-16 -10 -8 -7 -6 -6 -5 -5 -5 -5 -5 -5 -6 -5 -2 -2 -3 -3 -4 -1 -2 -2 -1 -3 -2 -2 -1 0 -0 -2 -0 -2 -2 -4 -3 -2 -2 -2 -2 -0 1 -7 -6 -4 -6 -9 -8
-25 -24 -21 -15 -11 -9 -8 -7 -6 -5 -5 -4 -3 -6 -3 -1 -2 -3 -3 -4 -2 -3 -1 -2 -1 -1 0 1 1 1 -1 -2 -2 -1 -5 -1 -2 -1 -1 -2 -3 -5 -4 -6 -7 -3 -1

GFSGBSN_850_dewp_225.txt.gz
Dewpoint
-2 -0 -0 -0 -1 -2 -2 -4 -5 -7 -8 -9 -10 -11 -12 -13 -12 -6 -1 1 -1 -5 -10 -12 -8 -2 -0 5 8 1 -0 -1 4 1 -5 -9 -3 -0 -0 -2 -3 -2 -3 -3 -3 -4 -4
-3 -4 -3 -3 -4 -5 -7 -7 -8 -9 -11 -13 -17 -17 -15 -13 -13 -13 -5 -1 0 -3 -7 -10 -13 -8 -2 4 4 3 5 5 5 4 3 -4 -2 -2 -1 -1 -3 -4 -4 -5 -5 -5 -5
-11 -13 -14 -15 -16 -15 -12 -6 -9 -13 -13 -15 -14 -14 -17 -15 -13 -10 -10 -3 1 -2 -5 -8 -9 -9 -1 1 1 2 3 5 6 5 3 -0 2 3 -0 0 -2 -2 -1 -2 -3 -4 -4
-3 -2 -4 -8 -11 -12 -10 -10 -6 -3 -7 -7 -9 -10 -14 -13 -10 -7 -9 -3 -1 -1 -5 -5 -5 -6 -1 -3 -3 -7 5 5 7 6 5 0 1 3 -1 -2 1 1 -0 1 -3 -4 -4
-4 -5 -6 -5 -4 -6 -7 -7 -4 -7 -10 -9 -9 -8 -6 -6 -2 -4 -4 -1 -0 -2 -4 -3 -4 -5 -2 -10 -14 -20 -11 -2 4 5 6 5 6 2 -1 2 3 2 4 3 -0 -3 -4
-12 -14 -16 -18 -18 -13 -3 -2 -4 -9 -10 -9 -9 -8 -5 -5 -5 -2 -1 0 -1 -2 -4 -2 -2 -3 -7 -13 -9 -15 -14 -8 -1 2 2 4 4 -1 -0 2 6 4 4 2 2 -1 -3
-6 -7 -7 -9 -10 -13 -2 -1 -5 -8 -10 -8 -7 -8 -5 -5 -5 -4 -1 0 -0 -3 1 -4 -6 -10 -6 -8 -6 2 5 1 4 4 6 2 1 2 1 -0 1 2 2 2 0 -1 -0
-2 -3 -4 -4 -5 -7 -7 -5 -9 -11 -10 -9 -8 -7 -5 -3 -4 -2 0 -0 0 0 0 1 0 -2 -6 -8 -4 -8 -4 5 5 3 5 7 4 -0 -2 -1 -1 2 3 3 1 -1 -1
-7 -7 -7 -4 -3 -3 -6 -13 -9 -11 -8 -9 -8 -6 -5 -3 -2 -1 -0 0 -0 0 1 -0 -3 -1 -2 -3 -2 -10 -9 -4 5 6 6 7 3 0 -0 -2 -2 -2 1 3 3 -3 -4
-4 -4 -4 -5 -4 -4 -3 -8 -11 -9 -8 -9 -8 -5 -5 -3 -1 -1 -0 0 0 1 -2 -5 -3 -4 -2 -2 -2 -6 -11 -5 3 5 5 7 4 3 1 1 -2 -1 -4 -4 -4 -2 -1
-4 -4 -4 -4 -3 -4 -4 -4 -12 -9 -10 -8 -10 -5 -3 -2 -1 -1 -0 0 -0 -0 -7 -5 -6 -7 -4 -2 -3 -4 -6 -10 -4 6 5 5 6 6 7 3 -0 1 -2 -3 -3 -2 -2
-4 -3 -2 -2 -3 -3 -4 -5 -7 -10 -9 -7 -9 -5 -4 -2 -1 -0 -1 -0 0 -5 -9 0 -7 -5 -3 -3 -3 -4 -3 -7 -7 -4 1 2 1 4 5 4 4 2 2 2 -0 -1 3
-5 -4 -3 -3 -2 -3 -3 -4 -5 -11 -9 -8 -8 -7 -5 -4 -3 -3 -2 -1 -4 -7 -8 -5 -7 -4 -4 -1 -4 -5 -1 -3 -5 -0 2 1 1 -1 2 4 4 4 6 8 7 7 6
-5 -5 -5 -4 -4 -2 -4 -5 -5 -10 -9 -9 -8 -9 -5 -3 -3 -3 -3 -4 -7 -7 -3 -8 -8 -2 -1 -6 -6 -4 -0 1 1 1 3 4 2 1 1 5 5 5 6 6 8 6 4
-5 -5 -5 -4 -4 -3 -3 -5 -5 -8 -10 -9 -9 -8 -3 -3 -3 -3 -3 -6 -6 -6 -6 -5 -6 -5 -3 -7 -7 -6 -0 1 1 -1 4 5 4 1 -0 3 5 7 8 5 6 4 7
-5 -5 -5 -5 -4 -4 -4 -4 -4 -7 -10 -9 -9 -6 -3 -3 -3 -4 -5 -4 -5 -4 -6 -5 -4 -5 -5 -5 -4 -4 -2 -1 1 -2 -2 1 3 -0 0 0 3 5 4 9 8 10 9
-5 -6 -5 -5 -5 -5 -5 -5 -5 -7 -9 -9 -8 -6 -3 -1 -3 -4 -6 -7 -3 -6 -5 -3 -4 -5 -5 -4 -3 -2 -2 -3 -1 -6 -3 -0 -0 -0 -3 3 3 3 7 7 8 8 8
-6 -6 -5 -4 -4 -5 -5 -4 -4 -6 -9 -9 -5 -8 -4 -3 -4 -5 -7 -4 -3 -4 -6 -5 -5 -5 -6 -5 -4 -4 -3 -6 -3 -3 -2 -0 -1 1 -3 -6 -7 4 5 4 8 7 8
-8 -6 -6 -5 -5 -4 -4 -3 -3 -5 -8 -7 -3 -3 -2 -2 -8 -6 -5 -4 -4 -4 -4 -5 -4 -5 -6 -5 -4 -5 -4 -7 -5 -2 -1 -1 -3 -3 -5 -1 -3 2 2 2 3 4 5
-7 -6 -5 -5 -5 -5 -4 -4 -3 -4 -6 -7 -5 -8 -4 -4 -2 -3 -3 -5 -4 -4 -4 -3 -4 -5 -4 -4 -5 -5 -4 -5 -6 -5 -5 -4 -2 -3 -3 -4 -3 -2 -4 -1 2 2 3
-3 -6 -5 -5 -5 -5 -4 -4 -4 -4 -4 -5 -6 -7 -5 -8 -6 -4 -3 -3 -2 -3 -4 -5 -4 -4 -1 -1 -3 -3 -4 -4 -4 -5 -3 -1 0 -1 -2 -3 -3 -2 -2 -3 -1 1 3
-3 -3 -5 -4 -5 -4 -4 -4 -4 -4 -4 -3 -6 -4 -2 -2 -3 -3 -3 -5 -2 -3 -3 -3 -2 -3 -2 -1 -1 -0 -1 -1 -1 -3 -3 0 -0 1 1 -1 -2 -0 -2 -2 -2 -2 -1
-3 -3 -3 -5 -4 -4 -4 -3 -4 -4 -4 -4 -4 -4 -3 -4 -4 -4 -5 -4 -4 -4 -4 -4 -3 -3 -2 -2 -3 -3 -3 -2 -2 -2 -2 -2 -0 -1 -1 -4 -1 0 -0 -1 -2 -3 -4
-6 -4 -3 -2 -4 -4 -4 -4 -3 -3 -3 -3 -3 -3 -2 -5 -4 -3 -4 -4 -3 -3 -2 -4 -3 -2 -4 -5 -4 -2 -1 -1 -1 -2 -2 -2 -2 -1 -1 -2 -0 -6 -9 -7 -5 -6 -7
-12 -5 -4 -3 -2 -3 -4 -4 -4 -4 -2 -2 -2 -2 -2 -1 -3 -4 -4 -3 -3 -3 -3 -3 -4 -5 -4 -3 -4 -5 -7 -8 -7 -3 -2 -2 -2 -0 0 -2 -4 -5 -7 -7 -6 -6 -8
-21 -16 -8 -6 -3 -3 -3 -3 -4 -4 -4 -3 -4 -2 -2 -2 -4 -4 -2 -2 -3 -4 -5 -4 -4 -6 -5 -3 -2 -2 -3 -5 -5 -5 -4 -3 -2 -1 -5 -1 -2 -8 -10 -10 -9 -4 -9
-19 -21 -20 -12 -8 -6 -4 -4 -3 -3 -4 -3 -2 -3 -3 -2 -4 -5 -4 -4 -4 -4 -4 -5 -5 -3 -4 -3 -1 -1 -1 -4 -1 -3 -2 -1 -1 0 -1 -0 -2 -7 -9 -10 -3 -5 -9
-11 -16 -19 -21 -21 -18 -11 -8 -7 -5 -4 -3 -3 -3 -2 -3 -3 -4 -5 -3 -2 -3 -4 -5 -5 -6 -3 -1 -2 -3 -3 -3 -2 -5 -5 -3 -1 -2 -0 -0 -1 -7 -7 -5 -6 -8 -8
-5 -5 -5 -8 -10 -17 -23 -24 -19 -11 -7 -3 -3 -3 -3 -2 -2 -4 -4 -5 -4 -5 -4 -4 -5 -4 -4 -1 -1 -1 -0 -0 -0 0 -4 -1 -3 -1 -1 -3 -6 -8 -7 -8 -7 -5 -5

GFSGBSN_850_dewp_228.txt.gz
Dewpoint
-2 -2 -2 -2 -2 -5 -5 -8 -12 -12 -14 -18 -20 -20 -19 -20 -21 -17 -16 -16 -5 0 1 -4 -8 -11 -8 1 4 4 2 0 4 6 2 -2 -5 -3 0 -1 -2 -2 -3 -4 -4 -3 -4
-9 -11 -13 -15 -16 -16 -16 -14 -14 -17 -16 -15 -13 -13 -13 -14 -18 -17 -17 -15 -14 -2 1 -3 -5 -7 -9 2 0 1 2 4 5 6 5 -1 -3 -5 -1 -1 -2 -3 -4 -5 -5 -5 -5
-9 -10 -10 -11 -11 -12 -12 -12 -9 -5 -12 -13 -12 -12 -11 -10 -11 -10 -10 -13 -12 -5 1 -2 -4 -2 -2 -8 -4 1 1 1 3 5 6 4 -3 3 -0 -0 -2 -1 -0 -2 -3 -3 -4
-5 -8 -8 -7 -7 -7 -6 -3 -2 -4 -9 -11 -10 -11 -10 -8 -6 -5 -3 -5 -9 -3 -1 -1 -3 -2 -1 -9 -9 -13 1 2 5 6 6 6 4 5 4 -0 -1 2 0 1 -7 -4 -3
-13 -15 -16 -19 -20 -20 -16 -5 -4 -8 -10 -11 -9 -8 -9 -8 -6 -6 -6 -3 -5 -1 0 -1 -3 -2 -2 -10 -15 -20 -19 -8 -4 2 7 6 6 5 -0 -0 3 3 4 3 -1 -5 -4
-7 -7 -8 -9 -10 -11 -16 -5 -6 -10 -11 -11 -10 -8 -7 -8 -7 -6 -6 -5 -3 -2 -1 -1 -2 -2 -7 -9 -7 -5 0 -10 -8 0 2 3 5 1 -0 2 4 4 5 2 2 -1 -3
-2 -2 -5 -6 -5 -6 -8 -8 -5 -10 -10 -9 -10 -8 -7 -7 -6 -4 -4 -3 -1 -0 -0 -2 -2 -4 -10 -7 -10 -0 -4 3 0 3 4 5 5 6 4 1 1 2 2 3 0 -1 -0
-7 -8 -8 -8 -5 -3 -4 -6 -14 -9 -10 -8 -10 -9 -6 -6 -4 -2 -1 -1 0 0 0 -3 -2 -1 -5 -6 -3 -8 -6 2 4 2 1 4 6 5 -0 0 0 1 2 3 1 -0 -0
-6 -5 -5 -5 -5 -5 -5 -4 -7 -13 -10 -10 -10 -10 -7 -5 -4 -2 -1 -0 -1 -0 1 -1 -1 -1 -3 -2 -0 -3 -8 -2 4 4 2 2 3 2 1 0 1 1 2 2 3 -1 -2
-4 -5 -5 -5 -4 -4 -4 -5 -6 -13 -10 -9 -8 -9 -7 -5 -3 -2 -1 -0 -0 -0 -3 -1 -3 -2 -2 -1 -2 -4 -4 -9 -0 5 1 2 -2 3 3 1 0 2 -1 -1 -1 -3 0
-5 -4 -2 -2 -2 -2 -3 -4 -6 -8 -11 -9 -8 -10 -6 -4 -2 -1 -1 -0 -0 0 -1 -1 -2 -5 0 0 -3 -4 -4 -8 -4 3 3 2 2 3 5 2 -1 1 -3 -3 -4 -3 -4
-6 -5 -3 -2 -2 -2 -3 -4 -5 -6 -12 -10 -9 -10 -7 -4 -3 -2 -2 0 0 -5 -3 -2 -6 -5 -3 -3 -6 -4 -2 -7 -8 -9 -5 2 -1 2 4 3 0 0 1 1 -1 -0 2
-7 -7 -6 -5 -2 -3 -2 -4 -5 -6 -12 -10 -10 -9 -6 -3 -3 -3 -5 -2 -6 -7 -8 -5 -6 -4 -6 -5 -6 -3 0 -0 0 1 -4 -7 -1 0 -0 6 3 5 5 8 8 7 5
-7 -7 -7 -6 -5 -4 -3 -4 -6 -6 -11 -11 -10 -9 -5 -2 -4 -4 -4 -5 -5 -7 -3 -7 -6 -4 -3 -7 -6 -2 1 2 -1 -0 2 1 3 2 0 2 5 6 6 6 8 6 4
-7 -7 -7 -6 -5 -4 -4 -4 -6 -7 -11 -12 -11 -8 -4 -3 -4 -4 -4 -7 -7 -5 -4 -4 -6 -5 -4 -6 -6 -5 -1 0 0 -2 1 1 3 -2 -1 -0 3 4 7 3 5 4 5
-7 -7 -6 -6 -6 -5 -4 -6 -6 -7 -11 -12 -11 -8 -4 -2 -3 -4 -7 -6 -5 -5 -5 -4 -4 -5 -4 -4 -4 -3 -6 -1 -1 -4 -3 -1 1 -2 -4 -3 2 4 3 7 7 8 7
-8 -6 -6 -5 -5 -5 -5 -6 -6 -7 -10 -11 -10 -7 -4 -3 -3 -5 -7 -8 -3 -5 -5 -4 -4 -4 -4 -4 -3 -3 -3 -5 -3 -5 -3 -1 -2 -3 -4 2 1 6 6 6 7 8 8
-8 -6 -6 -6 -5 -5 -5 -5 -4 -6 -9 -10 -8 -8 -6 -6 -5 -7 -7 -4 -3 -4 -5 -5 -5 -6 -6 -4 -4 -4 -3 -5 -5 -4 -2 -1 -2 -0 -4 -7 -6 3 3 2 6 6 6
-6 -7 -6 -6 -6 -5 -5 -4 -4 -4 -8 -9 -7 -6 -5 -4 -8 -9 -7 -4 -4 -4 -4 -4 -4 -5 -6 -4 -4 -4 -4 -6 -5 -3 -2 -2 -5 -4 -5 -1 1 2 2 1 1 3 4
-2 -7 -7 -6 -6 -6 -5 -4 -5 -4 -7 -7 -7 -9 -6 -5 -3 -5 -4 -5 -5 -5 -4 -4 -4 -5 -3 -3 -5 -5 -3 -5 -6 -5 -5 -3 -2 -4 -3 -4 -4 -3 -1 -1 1 1 2
-2 -3 -6 -6 -6 -5 -5 -5 -4 -4 -4 -6 -7 -8 -5 -8 -7 -4 -3 -3 -2 -2 -4 -4 -5 -4 -2 -1 -3 -3 -4 -3 -3 -4 -2 -2 -1 -1 -2 -3 -3 -2 -1 -2 -1 -0 1
-4 -3 -3 -5 -5 -5 -4 -5 -5 -4 -3 -4 -5 -6 -3 -3 -3 -3 -4 -6 -2 -3 -3 -3 -3 -3 -3 -2 -2 -2 -2 -1 -2 -3 -2 -1 -2 0 -1 -2 -1 -0 -4 -4 -2 -2 -2
-6 -3 -3 -2 -4 -4 -4 -4 -4 -4 -3 -4 -4 -4 -3 -5 -4 -4 -4 -4 -4 -4 -5 -4 -4 -3 -2 -3 -4 -3 -3 -3 -3 -2 -2 -2 -1 -1 -2 -5 -3 -2 -3 -4 -4 -3 -3
-14 -5 -3 -3 -3 -3 -4 -4 -4 -3 -3 -3 -3 -3 -2 -5 -4 -4 -4 -4 -4 -4 -3 -4 -3 -2 -4 -5 -4 -3 -2 -1 -2 -2 -2 -2 -2 -1 -2 -2 -1 -7 -8 -7 -5 -5 -6
-18 -16 -7 -4 -3 -2 -2 -3 -3 -4 -3 -2 -2 -2 -2 -4 -4 -4 -4 -4 -4 -4 -3 -3 -4 -5 -5 -3 -4 -4 -6 -9 -8 -4 -3 -3 -2 -1 -1 -3 -4 -6 -7 -6 -6 -7 -8
-15 -16 -18 -12 -5 -4 -2 -2 -2 -3 -4 -4 -3 -2 -2 -2 -4 -5 -3 -3 -3 -5 -5 -4 -5 -5 -6 -5 -3 -2 -4 -6 -5 -5 -5 -2 -2 -1 -8 -2 -4 -8 -11 -10 -9 -4 -9
-11 -16 -17 -19 -12 -9 -6 -4 -3 -2 -2 -3 -2 -3 -3 -2 -4 -5 -5 -5 -5 -4 -6 -5 -5 -4 -3 -7 -5 -4 -3 -4 -2 -2 -3 -1 -1 -1 -2 -1 -3 -7 -9 -10 -4 -6 -9
-4 -6 -12 -17 -19 -20 -17 -9 -6 -4 -3 -3 -3 -3 -3 -3 -4 -4 -4 -4 -4 -4 -4 -6 -5 -8 -6 -4 -5 -6 -4 -3 -2 -4 -5 -3 -1 -3 -1 -0 -1 -8 -7 -6 -7 -9 -9
-4 -4 -4 -5 -7 -11 -13 -17 -15 -7 -4 -4 -4 -4 -3 -3 -3 -4 -4 -5 -4 -5 -4 -4 -5 -6 -5 -2 -3 -5 -3 -2 -4 -3 -3 -1 -3 -1 -1 -3 -6 -8 -7 -8 -8 -8 -8

GFSGBSN_850_dewp_231.txt.gz
Dewpoint
-5 -8 -12 -15 -17 -16 -16 -17 -18 -18 -16 -15 -14 -14 -14 -14 -13 -15 -18 -20 -19 -16 -13 1 0 -2 -7 -4 0 6 4 3 4 5 6 3 1 -3 -2 -0 -1 -2 -3 -3 -4 -4 -4
-17 -15 -12 -11 -12 -12 -13 -13 -12 -11 -12 -14 -13 -13 -13 -13 -12 -11 -11 -11 -11 -14 -14 -3 1 -2 -3 -1 -11 -3 0 2 4 6 5 1 -2 -4 -3 -2 -1 -2 -3 -3 -4 -5 -5
-5 -11 -12 -15 -18 -17 -7 -5 -3 -7 -10 -13 -13 -12 -11 -12 -12 -9 -9 -8 -7 -6 -11 -5 1 -0 -0 -1 -11 0 0 -0 2 5 6 6 -1 2 -1 -1 -1 -2 -2 -2 -3 -3 -4
-15 -16 -17 -17 -17 -18 -20 -16 -10 -9 -12 -12 -13 -11 -10 -10 -11 -10 -9 -9 -7 -4 -6 -2 -0 0 1 -3 -7 -11 -15 -1 3 6 5 5 5 4 5 1 -0 1 1 -3 -10 -7 -5
-8 -8 -8 -9 -10 -11 -14 -17 -16 -12 -13 -13 -12 -12 -11 -10 -9 -10 -10 -10 -8 -6 -3 -1 0 -1 -1 -6 -8 -11 -11 -17 -10 -1 4 6 6 6 2 4 2 2 -4 1 -5 -7 -6
-2 -1 -4 -7 -8 -7 -9 -9 -14 -14 -12 -12 -10 -11 -11 -9 -7 -7 -5 -4 -5 -5 -3 -2 -0 -0 -4 -6 -8 -10 -3 0 -15 -3 -0 5 5 6 3 3 0 -1 3 -0 -1 -2 -3
-5 -8 -9 -10 -8 -3 -2 -3 -7 -15 -13 -12 -10 -11 -11 -8 -6 -5 -3 -3 -2 -2 -1 -1 -2 -2 -6 -6 -6 -8 -3 -3 -1 -2 -0 3 6 7 5 2 -1 1 -2 0 0 -1 -0
-5 -5 -6 -5 -5 -5 -5 -2 -4 -9 -15 -11 -9 -11 -10 -7 -6 -3 -2 -1 -0 -0 -1 -2 -2 -1 -3 -2 -1 -6 -6 1 0 -3 -0 4 6 5 3 3 2 2 2 3 2 1 1
-2 -5 -5 -4 -2 -3 -2 -3 -6 -7 -14 -11 -9 -10 -10 -7 -4 -1 -1 -1 -1 -1 0 -1 -1 -1 -1 -0 1 -1 -5 -1 2 1 -1 1 1 2 4 3 3 3 3 2 1 1 -0
-3 -6 -5 -2 -2 -2 -2 -3 -5 -7 -12 -12 -10 -10 -10 -6 -3 -2 -1 -1 -0 0 -2 -1 -1 -2 -1 1 -1 -5 -4 -6 -2 3 -1 -2 -5 -0 4 5 2 3 0 1 1 2 3
-6 -6 -6 -5 -3 -2 -2 -3 -4 -7 -10 -13 -10 -9 -10 -6 -4 -3 -2 0 -1 -0 0 -4 -4 -3 -5 -3 -4 -6 -4 -5 -7 -0 1 -3 -1 -3 0 4 2 3 -1 1 1 1 1
-7 -7 -6 -4 -5 -3 -3 -2 -4 -7 -9 -13 -11 -10 -10 -5 -5 -4 -3 -2 -2 -4 -1 -4 -9 -5 -7 -6 -5 -2 -2 -6 -5 -8 -6 1 -0 -1 -6 -3 1 -1 -0 -1 -1 0 3
-8 -7 -7 -7 -5 -4 -4 -4 -4 -7 -9 -14 -11 -11 -9 -6 -5 -5 -4 -3 -3 -2 -7 -6 -6 -7 -7 -7 -5 -1 -0 -2 -1 -3 -6 -8 -6 -4 -1 1 1 1 2 5 7 6 4
-9 -8 -8 -7 -6 -5 -4 -5 -6 -7 -9 -14 -12 -11 -6 -4 -5 -5 -5 -4 -3 -5 -3 -6 -6 -8 -6 -8 -6 -3 -2 0 -3 -2 1 -1 -3 -4 0 3 3 5 4 4 4 3 3
-10 -8 -8 -7 -6 -5 -5 -5 -7 -7 -10 -14 -13 -11 -5 -4 -5 -5 -7 -3 -4 -5 -4 -5 -6 -7 -6 -8 -7 -5 -1 -1 -1 -6 1 -0 1 -4 -3 -5 1 5 6 2 4 4 5
-9 -8 -7 -7 -6 -6 -5 -6 -7 -7 -10 -13 -14 -11 -6 -4 -5 -5 -4 -4 -4 -6 -5 -5 -6 -6 -5 -5 -5 -4 -5 -3 -3 -6 -5 -3 -0 -4 -5 -4 -2 2 2 6 6 7 7
-7 -9 -7 -7 -6 -6 -6 -6 -6 -7 -9 -11 -12 -11 -6 -8 -6 -7 -3 -4 -3 -4 -5 -5 -5 -4 -6 -4 -4 -3 -4 -5 -6 -5 -4 -3 -3 -4 -5 1 2 4 5 4 6 6 6
-2 -9 -7 -7 -7 -6 -6 -5 -5 -5 -9 -10 -10 -6 -9 -8 -5 -7 -3 -3 -3 -4 -5 -5 -5 -6 -5 -5 -4 -4 -4 -6 -4 -4 -2 -2 -2 -2 -6 -5 -7 2 2 2 6 7 6
-3 -6 -8 -8 -7 -7 -6 -5 -5 -5 -8 -9 -8 -9 -7 -6 -4 -4 -6 -4 -4 -4 -4 -4 -4 -5 -5 -4 -2 -5 -5 -6 -4 -4 -2 -2 -3 -2 -5 1 -1 1 1 1 1 2 3
-6 -2 -7 -7 -7 -6 -7 -6 -5 -5 -7 -7 -7 -6 -6 -5 -4 -4 -3 -4 -4 -5 -4 -4 -4 -5 -3 -2 -4 -3 -4 -5 -5 -4 -3 -3 -2 -3 -3 -5 -5 -4 -4 -2 1 1 1
-6 -4 -3 -7 -6 -6 -6 -6 -6 -5 -5 -6 -7 -6 -5 -5 -4 -4 -3 -3 -3 -3 -4 -4 -4 -4 -2 -2 -3 -2 -4 -5 -5 -4 -2 -1 0 -2 -3 -4 -4 -3 -3 -3 -2 -2 -0
-8 -3 -2 -3 -6 -5 -6 -5 -5 -4 -3 -4 -5 -6 -3 -3 -3 -3 -4 -4 -3 -4 -3 -4 -3 -4 -3 -3 -4 -2 -4 -3 -3 -4 -1 -1 -2 -1 0 -4 -3 -3 -5 -5 -4 -4 -4
-16 -6 -3 -3 -2 -4 -5 -5 -4 -4 -4 -4 -4 -4 -4 -5 -4 -3 -4 -4 -4 -5 -5 -4 -4 -2 -3 -4 -4 -4 -4 -3 -3 -2 -3 -2 -1 -1 -3 -6 -5 -2 -4 -6 -8 -8 -5
-14 -10 -4 -3 -2 -3 -3 -4 -4 -3 -3 -3 -3 -3 -3 -4 -4 -4 -5 -5 -5 -5 -4 -5 -4 -3 -5 -4 -5 -5 -3 -3 -3 -3 -3 -3 -1 -1 -2 -3 -1 -8 -10 -10 -9 -9 -10
-10 -12 -9 -5 -3 -2 -2 -3 -3 -4 -3 -1 -2 -2 -2 -3 -4 -4 -4 -5 -4 -4 -4 -4 -4 -5 -5 -4 -2 -3 -4 -6 -6 -4 -2 -2 -1 -0 -1 -2 -6 -8 -10 -9 -7 -10 -11
-7 -8 -9 -16 -6 -4 -3 -3 -3 -3 -3 -3 -3 -2 -2 -2 -3 -4 -4 -4 -4 -4 -4 -5 -6 -5 -6 -3 -4 -2 -3 -5 -4 -4 -4 -4 -2 -1 -2 -1 -3 -10 -10 -9 -8 -4 -11
-4 -5 -7 -11 -15 -7 -4 -4 -3 -3 -3 -3 -3 -3 -3 -3 -5 -4 -4 -4 -5 -4 -4 -5 -5 -4 -3 -2 -3 -3 -3 -5 -4 -5 -3 -1 -2 -1 -1 -1 -4 -8 -10 -9 -4 -6 -10
-4 -4 -5 -11 -15 -16 -13 -6 -5 -4 -3 -3 -3 -3 -3 -3 -4 -4 -5 -5 -5 -4 -4 -6 -5 -6 -4 -3 -3 -3 -3 -3 -2 -5 -5 -4 -1 -1 -1 -1 -2 -8 -8 -6 -8 -7 -7
-4 -4 -4 -4 -5 -7 -8 -7 -9 -10 -4 -4 -5 -5 -4 -3 -3 -3 -3 -4 -4 -4 -5 -4 -5 -7 -4 -3 -3 -2 -3 -3 -4 -3 -8 -5 -6 -3 -2 -3 -7 -6 -7 -7 -7 -6 -6

GFSGBSN_850_dewp_234.txt.gz
Dewpoint
-11 -16 -15 -14 -13 -14 -14 -13 -13 -14 -14 -15 -15 -15 -15 -15 -16 -16 -15 -14 -12 -13 -15 -18 -12 -1 1 -2 -5 -0 7 5 5 6 7 6 3 -5 -10 -10 -7 -3 -5 -6 -5 -6 -6
-5 -9 -12 -14 -17 -18 -16 -11 -7 -10 -12 -14 -15 -15 -13 -13 -13 -14 -14 -15 -14 -11 -9 -9 -12 -2 2 -1 -4 -7 -1 3 2 5 5 5 2 -2 -10 -12 -7 -8 -6 -6 -5 -5 -5
-11 -14 -18 -19 -18 -17 -18 -16 -15 -13 -14 -15 -14 -14 -14 -14 -13 -13 -13 -14 -14 -11 -8 -5 -8 -1 2 -1 -3 -3 -7 -7 -2 3 5 5 1 -2 -6 -8 -9 -7 -5 -5 -6 -6 -5
-12 -10 -9 -9 -9 -10 -12 -14 -18 -14 -14 -15 -14 -13 -14 -15 -14 -11 -9 -7 -6 -8 -8 -6 -3 1 1 -2 -3 -3 -5 -8 -3 -1 3 6 6 2 -1 -8 -5 -5 -6 -6 -11 -7 -5
-2 -2 -3 -6 -7 -8 -10 -10 -11 -18 -16 -15 -14 -14 -15 -14 -11 -9 -8 -6 -7 -7 -7 -6 0 1 -3 -4 -4 -6 -7 -7 -10 -8 1 4 4 4 -0 2 -4 -4 -8 -6 -10 -13 -10
-1 -5 -8 -10 -10 -9 -8 -5 -8 -10 -17 -16 -14 -13 -14 -11 -8 -7 -6 -6 -5 -3 -1 0 1 -1 -3 -7 -6 -6 -7 -3 -4 -7 0 4 4 5 3 -0 -1 -5 -5 -8 -9 -9 -9
-7 -7 -7 -7 -6 -6 -6 -5 -4 -8 -14 -15 -13 -13 -14 -9 -6 -3 -4 -0 -2 -3 -2 -1 -2 -1 -3 -3 -3 -3 -6 -4 -1 -8 1 2 6 7 4 -0 -3 -5 -6 -5 -8 -7 -4
-2 -4 -6 -6 -4 -3 -3 -1 -5 -7 -10 -15 -13 -12 -13 -8 -4 -2 -1 -0 -1 -1 -0 -1 -0 0 -0 0 0 -3 -4 -4 -1 -8 -6 -1 6 3 1 1 -0 -1 -2 -3 -6 -4 -0
-3 -5 -6 -3 -2 -2 -2 -3 -4 -6 -8 -15 -12 -12 -13 -8 -5 -1 -1 -0 -1 -1 1 -2 -1 -0 -2 -0 1 -2 -4 -3 0 -4 -10 -3 -3 -1 2 2 3 2 1 -1 -1 -1 -1
-3 -7 -7 -6 -3 -2 -2 -2 -4 -5 -8 -14 -12 -12 -13 -8 -2 -3 -0 -2 -1 -1 -1 -6 -6 -4 -4 -1 -0 -5 -4 -5 -4 0 -9 -7 -9 -3 -1 3 2 3 -1 -1 -2 -1 0
-4 -8 -8 -6 -5 -5 -3 -3 -4 -5 -8 -14 -13 -12 -12 -7 -6 -0 -3 -4 -1 0 -1 -7 -8 -6 -5 -5 -3 -4 -3 -4 -5 1 -3 -7 -8 -8 -1 2 1 2 -2 -0 0 1 1
-6 -9 -8 -8 -7 -6 -4 -3 -4 -6 -9 -14 -13 -13 -12 -5 -4 -5 -6 -5 -0 0 -2 -5 -9 -9 -11 -10 -4 -1 -3 -5 -6 -6 -2 -0 -2 -2 -8 -2 1 1 1 1 1 1 5
-6 -10 -9 -8 -7 -7 -5 -5 -5 -8 -9 -14 -13 -13 -10 -7 -3 -6 -6 -2 -1 -2 -6 -7 -7 -9 -11 -11 -7 -2 1 -3 -3 -3 -4 -4 -2 -3 -2 -5 -0 2 3 6 6 5 3
-6 -10 -9 -8 -7 -7 -6 -6 -6 -8 -9 -14 -14 -13 -8 -7 -7 -6 -5 -5 -3 -3 -5 -9 -9 -11 -10 -12 -10 -4 -2 -1 -5 -4 -1 -4 -3 -5 -3 -0 -6 -0 2 1 3 0 -1
-3 -10 -9 -8 -7 -6 -6 -7 -8 -8 -10 -15 -16 -13 -8 -6 -7 -7 -5 -1 -2 -5 -7 -7 -11 -10 -11 -10 -10 -9 -3 -4 -4 -6 0 -0 -1 -3 -0 -2 1 -4 1 -2 -1 -3 1
-4 -10 -8 -8 -7 -6 -7 -7 -8 -8 -10 -13 -13 -14 -3 -9 -11 -6 -1 -1 -2 -7 -7 -8 -8 -8 -9 -9 -7 -5 -5 -6 -5 -7 -6 -3 -0 -6 -7 -4 -0 3 1 3 3 6 5
-5 -9 -8 -8 -8 -7 -7 -7 -7 -7 -10 -11 -11 -6 -7 -12 -9 -4 0 -1 -5 -7 -7 -6 -7 -7 -8 -7 -6 -4 -7 -8 -6 -7 -6 -5 -3 -4 -8 -1 2 3 5 6 6 5 6
-5 -2 -9 -8 -8 -7 -7 -7 -6 -6 -9 -10 -8 1 -10 -10 -2 -1 -0 -3 -4 -7 -6 -6 -6 -7 -6 -6 -5 -7 -6 -7 -5 -7 -4 -3 -2 -3 -6 -8 -7 -1 3 3 5 8 8
-6 -4 -7 -8 -8 -7 -7 -7 -6 -6 -8 -9 -3 -4 -8 -8 -0 -0 -2 -2 -5 -6 -7 -6 -6 -6 -6 -5 -2 -5 -6 -7 -6 -5 -2 -4 -0 -1 -3 -1 -3 0 1 -1 0 3 5
-7 -5 -2 -7 -7 -7 -7 -7 -7 -7 -7 -8 -4 2 -6 -3 -3 -4 -3 -2 -2 -6 -6 -5 -6 -6 -6 -4 -6 -4 -5 -7 -7 -6 -3 -3 -3 -4 -2 -4 -7 -4 -5 -4 0 2 2
-9 -6 -4 -3 -7 -6 -6 -6 -6 -6 -6 -6 -7 -1 -4 -1 -1 -5 -5 -5 -4 -5 -6 -6 -6 -6 -5 -3 -4 -4 -7 -7 -8 -5 -5 -3 -1 -5 -5 -7 -7 -7 -7 -7 -5 -2 0
-13 -6 -3 -2 -4 -6 -6 -5 -5 -5 -4 -4 -5 -2 -4 -5 -5 -5 -4 -3 -5 -6 -5 -6 -5 -6 -5 -4 -5 -4 -5 -6 -5 -7 -4 -2 -3 -4 -2 -7 -8 -8 -8 -9 -9 -8 -6
-7 -12 -4 -2 -2 -3 -5 -5 -5 -4 -4 -2 -5 -5 -3 -4 -5 -4 -5 -6 -5 -6 -6 -6 -5 -5 -4 -6 -7 -6 -5 -5 -5 -4 -4 -2 -2 -2 -2 -8 -7 -2 -7 -10 -10 -11 -11
-7 -7 -5 -2 -2 -2 -3 -4 -5 -4 -3 -2 -4 -2 -2 -3 -5 -5 -7 -7 -7 -7 -5 -6 -6 -5 -6 -7 -5 -6 -8 -9 -7 -6 -6 -2 -1 -1 -1 -3 -1 -8 -11 -11 -10 -12 -14
-6 -7 -8 -3 -3 -3 -2 -3 -3 -4 -3 -2 -3 -3 -2 -2 -6 -6 -7 -6 -7 -7 -6 -6 -7 -7 -6 -4 -3 -4 -5 -3 -3 -3 -4 -4 -2 0 -0 -2 -6 -9 -11 -10 -10 -9 -13
-4 -5 -5 -7 -4 -3 -3 -3 -3 -3 -3 -4 -2 -3 -2 -2 -4 -7 -6 -7 -5 -5 -5 -7 -5 -4 -4 -5 -4 -5 -7 -8 -8 -7 -5 -5 -3 -1 -1 -1 -2 -10 -12 -12 -11 -5 -11
-3 -3 -4 -3 -4 -7 -3 -3 -3 -3 -3 -3 -3 -3 -2 -2 -4 -5 -5 -5 -7 -6 -5 -7 -6 -5 -4 -3 -3 -4 -6 -11 -9 -11 -5 -2 -1 0 -1 -1 -5 -10 -11 -12 -5 -6 -10
-4 -4 -4 -4 -4 -6 -8 -5 -4 -3 -3 -3 -3 -4 -3 -3 -4 -5 -5 -6 -6 -6 -4 -7 -5 -5 -4 -3 -4 -5 -3 -7 -7 -10 -9 -8 -2 -1 -1 -1 -2 -10 -10 -7 -9 -9 -8
-4 -4 -4 -4 -4 -5 -6 -6 -6 -5 -4 -4 -4 -4 -4 -3 -3 -3 -4 -4 -3 -5 -6 -6 -6 -7 -6 -3 -4 -3 -4 -4 -6 -4 -11 -7 -9 -4 -6 -5 -10 -10 -9 -8 -8 -7 -6

GFSGBSN_850_dewp_237.txt.gz
Dewpoint
-16 -17 -14 -14 -15 -15 -14 -13 -13 -14 -15 -15 -16 -16 -16 -16 -16 -16 -16 -16 -16 -17 -16 -16 -13 -12 -3 -4 -5 -4 -4 3 3 5 7 7 6 1 -4 -9 -11 -8 -7 -8 -10 -10 -9
-12 -14 -18 -21 -21 -20 -18 -16 -15 -14 -15 -16 -15 -15 -15 -16 -16 -17 -16 -13 -11 -9 -10 -12 -10 -8 -1 -3 -5 -5 -5 -4 -2 2 5 6 6 3 -5 -10 -13 -13 -9 -8 -8 -8 -8
-15 -17 -16 -13 -12 -12 -13 -13 -17 -15 -16 -16 -15 -15 -16 -17 -18 -17 -13 -10 -9 -8 -8 -9 -9 -0 -2 -3 -4 -4 -5 -5 -4 -1 4 4 4 3 1 -6 -13 -15 -11 -9 -8 -8 -7
-8 -7 -7 -7 -8 -8 -8 -9 -11 -17 -19 -19 -17 -16 -16 -16 -15 -13 -11 -9 -8 -8 -8 -8 -8 0 -1 -2 -3 -5 -5 -6 -7 -5 -2 3 6 4 0 -3 -8 -12 -12 -7 -9 -9 -9
-0 -0 -2 -2 -4 -4 -4 -6 -9 -11 -17 -20 -17 -15 -15 -15 -13 -9 -7 -8 -8 -6 -6 -8 -1 1 -2 -5 -6 -7 -7 -7 -8 -10 -5 -1 3 5 2 0 -2 -7 -8 -8 -9 -11 -9
-4 -7 -9 -8 -7 -7 -7 -6 -8 -9 -13 -19 -17 -15 -15 -13 -10 -8 -7 -2 -3 -1 -4 -1 -1 -2 -1 -3 -5 -4 -6 -7 -8 -8 -9 -3 2 5 5 2 5 -2 -5 -8 -9 -12 -13
-4 -4 -6 -7 -6 -6 -5 -4 -5 -8 -11 -17 -17 -15 -14 -12 -8 -4 -1 -2 -4 -2 -2 -3 -3 -3 -3 -3 -2 -4 -5 -7 -6 -5 -9 -4 4 7 4 2 0 1 -1 -5 -8 -13 -12
-3 -5 -6 -6 -4 -2 -2 -3 -4 -6 -10 -16 -17 -15 -14 -11 -7 -0 0 -0 -0 -0 0 -3 -4 -2 -4 -4 -4 -4 -6 -6 -6 -4 -9 -5 4 2 -0 -1 0 0 1 -1 -6 -9 -10
-3 -6 -8 -8 -7 -5 -3 -2 -3 -6 -9 -15 -18 -15 -14 -9 -3 0 -1 1 -1 -1 1 -5 -6 -5 -6 -6 -0 -2 -3 -7 -6 -3 -7 -7 -3 -3 -2 -1 0 1 -0 -1 -3 -5 -7
-3 -7 -9 -9 -9 -6 -5 -4 -3 -6 -9 -14 -17 -14 -14 -8 -1 -0 -1 -1 1 0 2 -9 -11 -12 -7 -8 -3 -4 -5 -6 -5 -1 -4 -11 -9 -6 -2 0 -1 1 -2 -2 -1 -1 0
-2 -8 -10 -10 -9 -8 -6 -5 -4 -6 -10 -14 -17 -15 -14 -10 -0 -1 -1 -0 0 1 1 -10 -13 -12 -14 -9 -6 -3 -2 -4 -6 -2 2 -7 -12 -8 -5 -3 -2 -1 -3 -2 -1 1 2
-2 -9 -10 -10 -9 -7 -6 -6 -6 -7 -10 -14 -17 -15 -13 -1 0 -0 -1 1 1 2 -1 -8 -14 -14 -15 -16 -10 -2 -1 -5 -6 -7 -1 1 -6 -8 -10 -8 -5 -4 -2 -1 -1 -1 3
-1 -10 -10 -10 -8 -7 -7 -7 -7 -9 -10 -14 -17 -15 -11 -1 -1 -3 -2 -1 2 -1 -7 -11 -12 -14 -15 -15 -13 -8 -1 -2 -3 -1 -4 -3 -2 -4 -5 -7 -9 0 2 8 9 10 5
-1 -9 -10 -9 -8 -8 -7 -7 -8 -10 -11 -15 -18 -16 -5 -0 -3 -8 0 -3 -1 -2 -7 -12 -13 -16 -14 -14 -13 -10 -4 -2 -5 -7 -3 2 1 -4 -5 -4 -7 -0 4 7 6 2 0
-3 -7 -10 -9 -8 -8 -8 -8 -9 -9 -11 -14 -17 -4 -2 -1 -11 -6 -3 2 0 -6 -10 -10 -13 -12 -13 -14 -13 -9 -4 -5 -3 -5 -0 2 4 -0 -1 -3 -3 -5 2 2 3 -0 -1
-3 -4 -10 -9 -9 -8 -8 -8 -9 -9 -10 -13 -5 -6 -5 -11 -13 -1 -1 -0 -3 -9 -10 -10 -10 -11 -10 -11 -9 -8 -8 -8 -3 -6 -5 -1 -0 -1 -5 -4 -2 3 0 4 7 8 6
-5 -4 -10 -8 -9 -9 -8 -8 -8 -8 -10 -12 -3 -6 -2 -15 -8 -4 4 -1 -6 -9 -10 -8 -9 -9 -10 -9 -9 -7 -8 -9 -8 -8 -6 -4 -1 -3 -6 -2 3 5 5 6 7 4 4
-7 -4 -7 -9 -8 -9 -9 -8 -7 -8 -9 -10 -5 1 -3 -12 -2 -1 1 -5 -6 -9 -9 -8 -8 -9 -9 -8 -7 -8 -8 -8 -7 -8 -5 -4 -3 -2 -5 -5 -7 -1 4 4 6 6 8
-9 -5 -3 -9 -8 -8 -9 -8 -8 -8 -8 -4 -2 -2 -4 -4 4 2 -2 -1 -6 -8 -9 -8 -9 -9 -9 -7 -3 -6 -8 -8 -8 -8 -2 -5 1 -1 -4 -3 -5 -1 1 1 3 4 4
-11 -6 -5 -4 -7 -8 -8 -8 -8 -9 -9 -4 -3 1 -5 -2 -5 -5 -4 -3 -3 -8 -8 -8 -8 -9 -7 -5 -8 -6 -8 -9 -10 -9 -3 -3 -3 -3 -2 -2 -5 -6 -7 -3 1 2 0
-11 -8 -6 -2 -7 -7 -7 -7 -8 -8 -8 -4 -3 -1 -4 1 -0 -5 -6 -6 -7 -7 -8 -8 -8 -8 -8 -3 -3 -5 -8 -9 -10 -6 -7 -3 -2 -7 -8 -9 -9 -9 -9 -9 -7 -5 -1
-15 -15 -5 -4 -2 -7 -6 -6 -6 -7 -7 -2 -7 -1 -6 -7 -6 -6 -5 -3 -6 -9 -8 -6 -7 -8 -7 -5 -7 -2 -7 -7 -6 -9 -7 -5 -1 -4 -1 -8 -10 -10 -11 -11 -11 -10 -9
-12 -11 -8 -5 -4 -3 -6 -6 -6 -6 -5 -1 -3 -4 -5 -4 -6 -6 -4 -6 -7 -8 -7 -8 -8 -6 -6 -7 -6 -8 -8 -8 -7 -6 -6 -3 -2 -2 -1 -8 -8 -4 -7 -11 -11 -13 -13
-5 -8 -14 -7 -4 -2 -2 -5 -5 -5 -4 -1 -3 -5 -3 -1 -5 -5 -8 -9 -8 -9 -7 -8 -9 -8 -9 -6 -6 -8 -8 -9 -10 -9 -10 -6 -4 -1 -0 -4 -0 -7 -12 -12 -11 -12 -13
-3 -6 -11 -10 -3 -2 -3 -3 -4 -5 -3 -2 -2 -2 -2 -1 -6 -7 -7 -8 -8 -8 -8 -8 -9 -8 -8 -8 -3 -3 -1 -0 -0 -7 -8 -8 -5 0 -0 -2 -6 -8 -10 -11 -10 -10 -12
-3 -3 -7 -9 -4 -3 -3 -3 -3 -3 -4 -2 -1 -4 -1 -2 -3 -7 -7 -8 -6 -5 -5 -7 -7 -7 -6 -5 -4 -3 -4 -7 -7 -10 -10 -9 -6 -1 -1 2 -1 -10 -12 -12 -12 -5 -11
-3 -3 -3 -5 -5 -3 -3 -3 -3 -3 -4 -3 -2 -3 -1 -2 -5 -6 -5 -5 -7 -7 -5 -7 -6 -6 -5 -1 -1 -1 -3 -9 -8 -10 -6 -3 -0 -0 -1 -1 -4 -10 -11 -12 -5 -5 -7
-3 -3 -3 -3 -3 -4 -8 -3 -3 -3 -3 -4 -2 -3 -2 -2 -4 -5 -5 -6 -7 -7 -4 -6 -5 -6 -4 -2 -3 -4 -3 -6 -7 -9 -10 -8 -6 -3 1 0 -2 -9 -9 -4 -6 -8 -8
-3 -3 -4 -4 -3 -3 -4 -4 -4 -3 -3 -4 -3 -3 -3 -2 -3 -3 -3 -3 -5 -7 -7 -6 -6 -7 -6 -3 -3 -3 -3 -2 -4 -3 -10 -7 -9 -4 -6 -4 -8 -11 -12 -11 -9 -7 -7

GFSGBSN_850_dewp_243.txt.gz
Dewpoint
-14 -12 -13 -16 -20 -19 -19 -19 -18 -19 -20 -20 -20 -19 -19 -19 -19 -19 -17 -15 -14 -13 -13 -13 -13 -12 -13 -6 -9 -8 -5 -4 -5 -6 -1 0 2 4 2 2 1 1 -5 -6 -9 -9 -9
-10 -14 -19 -17 -16 -16 -15 -14 -17 -19 -20 -21 -21 -19 -19 -19 -19 -18 -12 -10 -11 -13 -13 -14 -13 -12 -6 -1 -6 -5 -6 -5 -4 -4 -4 -3 -1 4 1 3 3 -1 -3 -4 -7 -9 -9
-15 -13 -10 -9 -10 -10 -10 -11 -12 -14 -18 -21 -21 -19 -18 -19 -18 -16 -14 -12 -12 -11 -8 -5 -5 -3 -0 -3 -5 -5 -5 -6 -6 -7 -6 -5 -4 -2 1 3 4 2 0 -3 -6 -9 -9
-6 -3 -2 -6 -8 -9 -9 -9 -9 -10 -13 -18 -21 -19 -18 -20 -18 -14 -13 -14 -12 -7 -4 -2 -1 -0 0 -4 -5 -5 -5 -5 -6 -6 -7 -8 -6 -5 -1 2 5 5 5 2 -4 -8 -12
0 -0 -5 -9 -10 -9 -8 -8 -8 -8 -11 -15 -21 -19 -18 -20 -15 -10 -11 -9 -9 -4 -3 -2 -1 0 -1 -6 -6 -8 -7 -6 -6 -6 -7 -7 -8 -5 -2 1 7 6 9 6 1 -8 -11
-3 -6 -7 -6 -6 -5 -4 -3 -3 -6 -9 -14 -22 -19 -19 -16 -7 -5 -8 -9 -5 -3 -4 -2 -2 0 -5 -7 -7 -9 -6 -4 -4 -5 -6 -7 -7 -4 -1 4 9 8 7 6 4 -6 -10
-4 -1 -4 -6 -6 -3 -0 -0 -0 -6 -9 -13 -22 -19 -18 -8 -2 -1 -10 -10 -8 -2 -10 -4 -6 -5 -7 -8 -10 -9 -7 -4 -2 -4 -5 -6 -6 -4 -2 1 6 5 5 4 3 -4 -9
-0 -1 -5 -7 -8 -6 -3 -2 -2 -5 -9 -13 -22 -18 -18 -3 -1 -0 -1 -1 -1 -4 -2 -8 -7 -5 -9 -12 -12 -10 -7 -4 -1 0 -2 -5 -4 -8 -7 -0 2 4 6 3 1 -1 -3
-3 -2 -5 -8 -9 -9 -8 -8 -7 -6 -9 -13 -21 -18 -18 -4 -0 0 -1 -0 0 -0 1 -4 -11 -13 -16 -17 -16 -8 -7 -5 -4 1 1 -1 -5 -8 -9 -4 2 3 4 3 3 -1 -2
-2 -3 -5 -9 -10 -10 -10 -9 -8 -7 -9 -14 -21 -18 -16 -10 -1 -0 -1 -0 0 -0 1 -11 -15 -17 -18 -17 -15 -10 -6 -2 -2 0 -0 -1 -3 -4 -7 -8 -2 4 2 1 1 1 3
-6 -2 -5 -10 -11 -11 -10 -8 -8 -7 -10 -14 -21 -18 -5 -1 0 1 -0 -3 1 1 -4 -10 -15 -16 -17 -17 -14 -7 -6 -3 -1 -0 -0 2 0 1 -1 -8 -7 -1 -1 0 -0 1 3
-10 -6 -6 -11 -11 -11 -9 -8 -8 -9 -12 -14 -21 -18 -9 -2 0 1 -4 1 2 1 -7 -7 -15 -13 -14 -15 -11 -8 -7 -8 -5 -3 -3 -1 -3 -2 -2 -2 -8 -7 -3 -0 -1 3 7
-10 -7 -6 -11 -11 -10 -9 -8 -9 -10 -13 -14 -20 -21 -18 -7 -0 -8 -3 2 0 -7 -8 -11 -12 -12 -13 -12 -12 -7 -7 -8 -6 -4 -4 -3 1 -0 1 0 -4 -9 1 7 5 8 9
-9 -5 -5 -11 -11 -10 -9 -9 -10 -11 -13 -14 -20 -21 -16 -11 -9 -13 1 1 -4 -4 -6 -12 -12 -12 -11 -11 -10 -10 -5 -6 -9 -8 -3 1 2 2 2 2 1 2 -0 8 7 7 6
-4 -4 -4 -10 -12 -10 -10 -9 -10 -11 -12 -15 -10 -4 -3 -9 -9 -9 2 -1 -4 -3 -11 -12 -11 -9 -9 -10 -8 -7 -4 -6 -8 -9 -3 2 1 0 -1 -2 -1 3 2 1 6 5 7
-3 -2 -4 -8 -12 -11 -10 -9 -10 -11 -11 -14 -10 -3 -3 -1 -14 -2 0 -3 -3 -9 -11 -12 -7 -9 -7 -8 -5 -4 -5 -6 -6 -9 -7 -3 0 -4 -3 -2 1 3 3 4 7 7 7
-1 -1 -2 -7 -12 -11 -11 -10 -10 -11 -11 -14 -9 -1 1 -2 -10 -0 2 -0 -1 -9 -11 -8 -7 -6 -6 -7 -6 -4 -6 -6 -6 -8 -6 -6 -2 -1 -3 2 5 3 3 4 6 7 8
-2 -2 -2 -4 -10 -10 -11 -11 -10 -10 -11 -11 -2 -1 -1 -15 1 1 -1 -3 -8 -10 -10 -8 -8 -7 -7 -6 -3 -4 -4 -5 -7 -7 -3 -5 -2 0 3 -3 -3 1 4 3 1 2 4
-2 -2 -2 -6 -8 -10 -11 -11 -11 -10 -11 -0 -1 -1 -1 -8 0 -1 -1 -5 -6 -8 -8 -8 -8 -8 -8 -4 -3 -6 -5 -8 -6 -4 -4 -3 -1 1 -1 -3 -7 -4 1 2 3 2 4
-2 -2 -2 -4 -5 -10 -10 -11 -11 -10 -12 -5 0 -4 -2 -3 -0 -0 -1 -2 -3 -6 -8 -9 -9 -8 -6 -5 -6 -4 -4 -6 -6 -6 -5 -2 -1 -1 0 -1 -4 -4 -7 -4 1 2 1
-2 -2 -2 -6 -2 -8 -10 -11 -11 -10 -11 -5 -1 -3 -6 -2 -2 -1 -2 -3 -4 -5 -8 -9 -7 -6 -5 -3 -3 -3 -4 -5 -7 -8 -8 -2 0 -2 -3 -4 -5 -6 -7 -9 -6 -1 1
-2 -2 -2 -4 -3 -6 -9 -10 -10 -10 -10 -3 -2 0 -2 -5 -3 -2 -3 -3 -4 -6 -6 -5 -5 -5 -6 -5 -5 -3 -4 -5 -6 -7 -5 -5 -3 -3 -4 -5 -5 -4 -5 -8 -9 -10 -9
-2 -2 -2 -2 -4 -3 -6 -8 -9 -9 -9 -6 -0 -2 -4 -2 -2 -3 -2 -2 -3 -5 -7 -8 -7 -6 -6 -5 -7 -8 -8 -7 -6 -5 -5 -4 -4 -3 -3 -4 -3 -5 -5 -7 -8 -10 -10
-2 -2 -2 -2 -2 -2 -2 -7 -8 -8 -10 -2 -2 -2 -3 -3 -2 -2 -4 -5 -6 -7 -6 -8 -8 -7 -7 -7 -8 -8 -7 -6 -6 -6 -7 -5 -5 -4 -4 -2 -4 -5 -8 -8 -7 -5 -4
-2 -2 -2 -2 -3 -2 -2 -4 -7 -7 -8 -2 -1 -2 -2 -3 -2 -3 -3 -5 -7 -8 -7 -8 -8 -7 -7 -7 -4 -5 -6 -4 -6 -4 -6 -7 -5 -5 -4 -3 -3 -5 -6 -7 -5 -4 -4
-2 -2 -3 -2 -3 -2 -2 -2 -6 -7 -7 -4 -2 -1 -1 -3 -3 -4 -5 -6 -4 -4 -4 -5 -6 -6 -7 -4 -4 -6 -5 -5 -4 -4 -7 -7 -5 -3 -6 -1 0 -3 -4 -5 -5 -1 -8
-2 -3 -3 -3 -2 -2 -2 -2 -2 -5 -5 -6 -3 -2 -2 -2 -4 -6 -4 -4 -5 -5 -3 -5 -5 -4 -4 -5 -6 -5 -3 -4 -3 -6 -5 -3 -4 -5 -6 -5 -3 -7 -6 -8 -1 -2 -8
-2 -2 -3 -3 -3 -3 -2 -2 -2 -3 -4 -5 -3 -3 -2 -2 -5 -4 -3 -3 -4 -6 -4 -4 -4 -4 -4 -5 -4 -4 -3 -3 -3 -5 -5 -4 -3 -3 -4 -7 -4 -5 -6 -3 -6 -8 -8
-2 -3 -3 -3 -3 -3 -3 -2 -3 -3 -3 -4 -3 -3 -2 -2 -2 -3 -3 -3 -4 -4 -4 -4 -3 -4 -3 -4 -4 -4 -3 -3 -2 -3 -8 -4 -6 -1 -2 -2 -6 -8 -7 -9 -9 -10 -10

GFSGBSN_850_dewp_246.txt.gz
Dewpoint
-13 -17 -16 -19 -21 -19 -18 -17 -18 -19 -21 -22 -22 -21 -21 -22 -21 -20 -15 -12 -13 -14 -14 -11 -11 -9 -9 -8 -10 -10 -7 -5 -4 -5 -5 -4 -4 -1 3 1 1 2 1 -2 -4 -6 -9
-15 -16 -20 -19 -16 -16 -15 -14 -16 -18 -21 -22 -22 -21 -20 -20 -19 -17 -16 -14 -13 -10 -7 -8 -6 -6 -6 -5 -7 -8 -7 -7 -7 -7 -6 -6 -6 -4 -4 2 2 0 1 -1 -1 -2 -6
-17 -18 -13 -12 -12 -12 -12 -11 -11 -12 -14 -19 -22 -20 -19 -20 -17 -14 -13 -13 -12 -8 -6 -5 -3 -3 -5 -6 -6 -7 -8 -7 -8 -7 -6 -6 -7 -7 -5 -3 1 2 3 3 3 -1 -5
-12 -7 -3 -4 -8 -10 -9 -9 -8 -10 -12 -16 -22 -20 -19 -18 -12 -7 -9 -12 -13 -7 -4 -3 -2 -1 -4 -6 -7 -7 -8 -8 -6 -6 -7 -6 -6 -7 -6 -6 -3 2 5 6 4 1 -3
-2 -1 -4 -8 -10 -9 -7 -6 -7 -9 -10 -14 -20 -20 -19 -12 -6 -8 -10 -11 -8 -9 -5 -3 -1 1 -3 -7 -8 -9 -8 -8 -7 -5 -4 -6 -6 -6 -7 -3 1 3 8 7 6 3 -2
-1 -6 -9 -10 -8 -7 -5 -1 -0 -7 -8 -12 -18 -20 -18 -5 -4 -10 -11 -12 -4 -6 -9 -4 -2 0 -9 -10 -11 -9 -9 -9 -6 -3 -4 -4 -6 -6 -6 -3 4 4 7 6 7 4 2
-4 -7 -7 -8 -8 -8 -3 -0 1 -2 -7 -10 -17 -19 -17 -3 -2 -8 -14 -14 -6 -8 -12 -8 -8 -6 -9 -13 -13 -12 -9 -7 -6 -3 -2 -4 -4 -3 -5 -4 -2 2 5 6 5 3 2
-3 0 -5 -8 -9 -9 -8 -6 -4 -6 -6 -10 -17 -19 -18 -3 -0 -1 -3 -5 -1 -3 -4 -9 -8 -7 -14 -12 -12 -10 -7 -5 -4 -1 -2 -0 -0 -3 -6 -8 -2 -0 4 8 5 2 2
-4 -1 -3 -7 -10 -11 -11 -9 -9 -8 -8 -11 -18 -19 -19 -1 0 -0 -1 -3 -1 -0 -0 -10 -13 -16 -17 -17 -15 -7 -7 -5 -3 -1 -1 0 -2 -3 -4 -6 -6 -2 2 7 6 2 1
-3 -2 -2 -6 -10 -11 -12 -11 -10 -8 -9 -13 -20 -19 -13 -4 -1 -1 -3 -1 0 1 -1 -10 -11 -16 -15 -16 -11 -7 -9 -5 -2 0 0 1 -1 -0 -0 -3 -7 -5 -4 1 3 4 5
-3 -5 -1 -4 -10 -12 -12 -11 -10 -9 -10 -14 -20 -19 -3 -3 1 -0 -1 -1 1 1 -12 -12 -13 -15 -14 -15 -10 -8 -11 -8 -7 -2 -0 -1 -2 2 2 0 -5 -7 -7 -3 1 3 5
-3 -5 -2 -2 -9 -12 -12 -11 -9 -9 -11 -15 -20 -19 -6 -2 -1 -1 -5 1 2 -7 -13 -6 -14 -13 -12 -13 -11 -8 -10 -11 -10 -7 -8 -0 -2 1 4 2 0 -3 -6 -2 -1 2 8
-2 -3 -1 -1 -8 -12 -12 -11 -9 -10 -12 -15 -19 -21 -19 -12 -1 -12 -1 2 -3 -9 -9 -10 -11 -12 -12 -11 -9 -8 -7 -8 -7 -5 -4 -4 1 2 1 4 1 -0 -6 2 5 6 7
-1 -1 -2 -1 -5 -12 -11 -10 -10 -10 -13 -15 -19 -22 -17 -14 -13 -7 2 -3 -6 -6 -5 -12 -12 -11 -9 -8 -8 -7 -5 -6 -9 -8 -3 -0 -1 0 1 3 3 1 1 4 6 7 6
-1 -1 -2 -1 -3 -11 -11 -10 -10 -11 -13 -15 -16 -9 -6 -10 -14 -4 -1 -5 -5 -4 -10 -10 -10 -8 -8 -9 -7 -5 -5 -5 -6 -7 -4 -1 -4 -6 -2 1 0 3 4 2 4 4 6
-1 -2 -1 -1 -2 -10 -10 -9 -10 -12 -12 -15 -11 -4 -4 -2 -11 -0 -3 -3 -3 -6 -11 -10 -6 -8 -6 -7 -5 -4 -4 -5 -4 -6 -6 -5 -1 -4 -0 -0 -2 4 3 6 6 6 7
-1 -1 -2 -1 -1 -8 -10 -9 -9 -11 -13 -15 -11 -2 -2 -1 -9 -0 -3 -3 -2 -7 -10 -9 -7 -6 -6 -6 -4 -3 -4 -6 -4 -6 -7 -5 -2 -0 -2 0 2 -0 3 3 5 4 6
-1 -1 -1 -1 -1 -5 -10 -9 -9 -11 -12 -12 -1 -3 -1 -13 -1 -1 -3 -2 -7 -8 -9 -8 -8 -7 -7 -6 -3 -5 -5 -6 -5 -5 -4 -4 -2 1 1 -2 -4 0 2 3 3 3 1
-2 -2 -2 -1 -1 -2 -9 -10 -9 -10 -11 -5 -1 -0 -2 -8 -3 -4 -2 -3 -6 -8 -8 -7 -8 -9 -8 -6 -4 -5 -5 -6 -7 -4 -3 -2 -1 -0 -2 -3 -6 -4 -4 2 2 2 3
-2 -2 -2 -2 -2 -2 -8 -9 -9 -9 -11 -1 0 -3 -1 -3 -0 -2 -1 -2 -3 -6 -6 -8 -9 -8 -7 -5 -6 -5 -4 -5 -7 -7 -5 -3 -2 -1 0 -1 -3 -3 -4 -5 0 1 0
-3 -2 -2 -2 -2 -2 -3 -8 -9 -8 -10 -5 -0 -4 -4 -8 -8 -1 -2 -3 -4 -6 -6 -8 -8 -8 -6 -4 -3 -3 -4 -5 -6 -7 -6 -4 -2 -3 -3 -4 -4 -4 -6 -7 -5 -2 -0
-2 -2 -2 -2 -2 -1 -2 -8 -7 -8 -8 -7 -1 -3 -1 -3 -3 -2 -3 -3 -3 -4 -6 -6 -6 -6 -7 -6 -6 -3 -5 -6 -5 -6 -6 -5 -4 -4 -5 -4 -5 -4 -5 -6 -7 -8 -8
-3 -3 -2 -2 -2 -2 -1 -3 -8 -7 -8 -7 -1 -6 -3 -3 -3 -3 -3 -4 -3 -4 -6 -8 -7 -6 -6 -6 -7 -7 -8 -8 -7 -5 -5 -5 -5 -4 -5 -4 -4 -8 -5 -6 -4 -3 -4
-3 -3 -2 -2 -2 -2 -1 -2 -7 -6 -8 -9 -3 -1 -5 -6 -3 -2 -3 -4 -2 -3 -5 -7 -8 -8 -8 -7 -8 -8 -6 -5 -5 -4 -6 -5 -5 -5 -6 -4 -9 -8 -7 -5 -3 -5 -6
-3 -2 -3 -3 -2 -2 -2 -2 -5 -6 -7 -7 -1 -1 -2 -5 -3 -3 -3 -3 -5 -6 -7 -9 -8 -8 -7 -7 -5 -7 -8 -8 -9 -5 -5 -5 -5 -8 -6 -4 -4 -4 -1 -3 -2 -5 -8
-4 -3 -2 -3 -2 -2 -2 -2 -3 -6 -6 -7 -1 -2 -1 -3 -4 -3 -4 -5 -4 -5 -5 -5 -6 -6 -7 -4 -5 -6 -6 -6 -3 -4 -6 -5 -5 -5 -8 -5 -4 -3 -5 -7 -6 -1 -7
-4 -2 -3 -2 -3 -3 -3 -2 -2 -5 -4 -6 -2 -0 -1 -2 -5 -5 -4 -4 -5 -5 -5 -5 -5 -4 -6 -7 -9 -6 -4 -4 -2 -5 -5 -4 -6 -6 -9 -6 -3 -5 -7 -7 -2 -2 -8
-3 -3 -2 -3 -3 -3 -3 -2 -2 -4 -5 -4 -5 -1 -1 -3 -5 -4 -4 -4 -4 -5 -5 -4 -5 -5 -5 -6 -6 -6 -4 -3 -2 -5 -5 -4 -4 -5 -6 -7 -3 -6 -7 -5 -6 -7 -7
-3 -3 -3 -3 -3 -3 -3 -2 -2 -2 -4 -5 -5 -3 -2 -2 -3 -4 -5 -5 -4 -3 -4 -5 -5 -4 -5 -6 -6 -6 -3 -4 -3 -4 -6 -5 -5 -5 -4 -4 -7 -8 -7 -8 -7 -7 -6

GFSGBSN_850_dewp_249.txt.gz
Dewpoint
-6 -18 -18 -21 -23 -21 -21 -19 -21 -21 -21 -22 -22 -21 -21 -21 -21 -21 -18 -14 -15 -13 -9 -8 -10 -11 -9 -8 -7 -9 -9 -9 -9 -9 -7 -6 -6 -2 1 -1 1 -1 -1 -1 -1 -2 -3
-16 -16 -21 -22 -18 -17 -16 -15 -16 -17 -19 -21 -23 -22 -21 -21 -20 -18 -16 -15 -13 -9 -7 -6 -7 -10 -10 -7 -10 -10 -11 -12 -9 -7 -7 -8 -7 -7 -6 -4 0 2 2 2 1 0 -1
-16 -18 -17 -15 -14 -14 -13 -12 -13 -14 -16 -18 -22 -22 -20 -20 -14 -10 -12 -16 -15 -7 -7 -6 -6 -7 -9 -10 -9 -9 -8 -9 -9 -8 -6 -6 -6 -7 -6 -6 -4 -4 -1 1 2 1 2
-12 -9 -6 -8 -11 -12 -13 -12 -12 -12 -13 -15 -19 -21 -19 -14 -7 -7 -11 -14 -13 -8 -7 -5 -5 -5 -10 -12 -10 -10 -8 -9 -9 -8 -6 -7 -5 -6 -6 -7 -6 -4 -1 4 -2 1 2
-2 0 -0 -5 -11 -13 -12 -10 -7 -8 -10 -13 -17 -21 -18 -7 -6 -9 -11 -11 -9 -8 -7 -4 -4 -4 -11 -13 -12 -11 -8 -8 -8 -8 -6 -5 -5 -5 -6 -5 -4 -2 3 5 3 -1 2
0 -0 -2 -7 -9 -9 -9 -3 1 -1 -8 -11 -16 -21 -13 -4 -5 -9 -12 -10 -5 -6 -10 -7 -6 -4 -14 -14 -10 -9 -8 -8 -7 -6 -4 -4 -5 -5 -6 -5 -1 -0 2 2 5 4 4
-0 -3 -3 -4 -6 -8 -9 -6 -1 0 -5 -11 -16 -20 -10 -2 -2 -7 -14 -8 -5 -7 -12 -9 -8 -9 -11 -14 -11 -8 -9 -9 -6 -3 -2 -3 -3 -2 -4 -5 -5 -4 -1 1 1 4 3
-0 -1 0 -1 -5 -8 -10 -10 -8 -7 -8 -10 -15 -20 -15 -1 -0 -5 -13 -10 -3 -4 -6 -11 -9 -10 -14 -11 -10 -7 -10 -7 -4 -2 -3 -0 0 -3 -5 -5 -5 -5 -0 2 1 4 5
-1 -2 -1 -0 -3 -8 -11 -12 -11 -10 -9 -10 -15 -20 -19 -1 -0 -3 -9 -4 -1 -2 -2 -11 -13 -12 -15 -14 -9 -7 -13 -9 -2 -1 -1 1 -1 -2 -1 -1 -3 -4 2 4 3 4 4
-2 -3 -2 -1 -0 -7 -11 -12 -12 -10 -9 -10 -16 -20 -16 -2 -2 -2 -4 -2 0 -0 -7 -11 -12 -15 -14 -14 -10 -11 -12 -9 -2 -3 -0 1 -2 -2 2 2 0 -3 -5 -1 -1 5 8
-2 -2 -4 -2 -0 -5 -11 -12 -11 -10 -9 -11 -16 -19 -7 -7 -2 -4 -4 -1 1 0 -14 -13 -11 -14 -13 -12 -10 -9 -11 -11 -6 -8 -3 -4 0 1 3 2 1 -2 -7 -4 -3 2 5
-2 -2 -4 -5 -1 -4 -11 -12 -10 -9 -9 -12 -15 -20 -6 -2 -2 -4 -6 1 2 -7 -16 -7 -11 -13 -12 -12 -10 -8 -9 -10 -10 -8 -8 -6 -1 1 3 1 1 1 -2 -5 -4 1 5
-1 -1 -2 -6 -2 -3 -11 -11 -9 -8 -10 -13 -15 -21 -19 -15 -1 -11 -0 2 -4 -9 -10 -10 -12 -12 -11 -9 -9 -8 -7 -7 -6 -4 -4 -6 -5 2 1 2 1 1 -2 1 2 5 6
-1 -1 -1 -2 -2 -2 -11 -11 -9 -8 -10 -13 -15 -21 -20 -17 -11 -5 2 -5 -17 -9 -5 -12 -12 -10 -8 -9 -9 -6 -6 -4 -7 -7 -4 -2 -3 -3 1 4 3 2 1 1 4 4 3
-2 -1 -1 -1 -2 -1 -8 -11 -9 -8 -10 -13 -15 -19 -11 -11 -13 -3 0 -6 -10 -6 -9 -11 -10 -9 -8 -8 -7 -6 -5 -4 -4 -5 -2 -2 -3 -3 -0 2 2 3 4 3 4 5 6
-2 -2 -1 -1 -1 -1 -4 -10 -9 -9 -11 -13 -14 -5 -5 -3 -13 -1 -4 -4 -4 -5 -11 -10 -6 -8 -7 -6 -5 -4 -5 -5 -3 -6 -6 -5 -1 -4 -3 -3 -1 2 2 5 3 3 6
-2 -2 -2 -2 -2 -1 -1 -8 -9 -9 -10 -12 -14 -5 -3 -1 -9 0 -4 -6 -4 -7 -8 -9 -8 -7 -7 -7 -4 -4 -6 -6 -3 -5 -6 -4 -2 -2 -2 -1 0 -0 0 3 4 3 4
-2 -2 -2 -2 -2 -1 -1 -4 -7 -8 -10 -11 -8 -3 0 -5 -0 -2 -4 -2 -5 -8 -9 -9 -9 -7 -7 -7 -4 -4 -6 -5 -6 -5 -3 -4 -1 1 0 -2 -7 -1 -2 2 3 2 -0
-2 -3 -3 -2 -2 -2 -1 -2 -6 -7 -10 -11 -1 -0 -0 -5 -4 -3 -3 -2 -6 -8 -9 -8 -8 -9 -9 -7 -4 -5 -5 -6 -7 -6 -3 -3 -2 -2 -4 -6 -7 -3 -3 -3 1 2 2
-1 -3 -2 -3 -2 -2 -1 -2 -3 -6 -8 -6 0 -3 -1 -3 -3 -3 -2 -3 -4 -6 -7 -8 -10 -9 -7 -6 -6 -5 -5 -5 -7 -6 -7 -6 -2 -2 -2 -3 -4 -3 -3 -6 -1 0 1
-1 -1 -3 -3 -3 -2 -2 -1 -2 -3 -7 -3 0 -3 -2 -5 -4 -1 -2 -2 -3 -5 -5 -7 -8 -8 -7 -5 -4 -4 -5 -5 -7 -5 -7 -6 -3 -3 -4 -4 -5 -4 -5 -5 -5 -4 -2
-2 -1 -2 -3 -3 -3 -2 -2 -2 -3 -3 -3 0 -4 -4 -5 -7 -1 -1 -3 -4 -5 -5 -6 -6 -7 -7 -6 -6 -4 -5 -6 -6 -6 -7 -6 -5 -4 -5 -6 -5 -4 -5 -3 -3 -2 -3
-1 -2 -1 -3 -3 -3 -3 -2 -2 -3 -2 -4 -3 -3 -3 -3 -3 -3 -3 -3 -3 -4 -6 -7 -6 -6 -6 -7 -7 -7 -7 -7 -7 -6 -6 -5 -6 -5 -6 -5 -5 -5 -5 -3 -5 -5 -4
-1 -2 -3 -3 -3 -3 -3 -2 -2 -3 -3 -7 -6 -3 -3 -4 -3 -3 -3 -4 -4 -3 -6 -7 -8 -7 -8 -8 -7 -7 -7 -8 -5 -5 -6 -5 -5 -6 -7 -6 -11 -7 -8 -5 -5 -7 -8
-1 -2 -2 -3 -3 -3 -3 -3 -2 -3 -3 -5 -1 -2 -4 -6 -4 -3 -3 -3 -4 -4 -3 -6 -8 -9 -8 -7 -6 -8 -8 -8 -10 -7 -4 -6 -5 -9 -7 -5 -6 -2 -2 -3 -4 -4 -8
-1 -1 -2 -3 -3 -3 -3 -3 -2 -2 -3 -4 -1 -1 -3 -3 -4 -5 -4 -4 -4 -5 -5 -5 -6 -7 -7 -5 -6 -8 -7 -6 -3 -4 -6 -5 -6 -6 -9 -6 -6 -5 -6 -7 -5 -1 -7
-4 -1 -2 -3 -4 -3 -3 -3 -2 -2 -3 -2 -3 -0 -1 -3 -5 -3 -4 -4 -6 -5 -5 -4 -6 -5 -6 -8 -10 -7 -5 -5 -2 -4 -5 -4 -8 -7 -10 -6 -4 -6 -7 -7 -4 -4 -7
-4 -1 -2 -3 -3 -3 -3 -3 -2 -2 -3 -2 -5 -1 -1 -3 -4 -4 -4 -4 -5 -5 -4 -4 -4 -5 -5 -7 -6 -7 -5 -3 -2 -5 -5 -4 -5 -6 -7 -8 -4 -7 -8 -6 -7 -8 -6
-5 -3 -2 -3 -4 -3 -3 -3 -2 -1 -3 -3 -3 -5 -1 -2 -4 -4 -4 -4 -4 -5 -5 -4 -6 -5 -5 -6 -7 -7 -3 -5 -3 -3 -7 -5 -6 -5 -5 -4 -7 -7 -8 -10 -7 -6 -4

GFSGBSN_850_dewp_252.txt.gz
Dewpoint
-4 -11 -16 -18 -18 -18 -19 -18 -20 -21 -22 -23 -24 -23 -21 -21 -20 -18 -17 -15 -14 -11 -10 -11 -10 -11 -11 -10 -9 -11 -11 -10 -9 -9 -7 -7 -7 -4 -2 -5 -3 1 -0 -1 -0 1 0
-11 -13 -17 -15 -14 -14 -15 -15 -16 -16 -17 -19 -23 -23 -21 -22 -18 -12 -15 -17 -15 -10 -8 -9 -11 -12 -13 -9 -11 -12 -12 -12 -10 -9 -8 -6 -7 -6 -6 -6 -3 -3 -5 -4 -3 -0 1
-12 -13 -11 -10 -10 -11 -12 -13 -13 -14 -14 -16 -20 -24 -21 -20 -10 -9 -12 -18 -15 -10 -7 -8 -11 -13 -14 -12 -12 -11 -11 -11 -11 -9 -8 -7 -5 -6 -6 -6 -6 -6 -5 -4 -3 -1 2
-12 -7 -1 0 -4 -9 -12 -13 -12 -13 -14 -14 -18 -23 -21 -14 -7 -8 -10 -14 -13 -10 -8 -8 -11 -14 -15 -15 -13 -10 -11 -11 -9 -8 -7 -6 -5 -5 -6 -6 -6 -6 -5 0 -2 -1 1
-6 -0 0 -0 -3 -9 -10 -9 -8 -10 -12 -13 -16 -22 -20 -10 -7 -9 -10 -12 -12 -12 -10 -9 -10 -11 -15 -14 -12 -11 -8 -8 -8 -7 -5 -4 -4 -5 -6 -5 -4 -4 -4 -5 -4 -0 -0
-1 -0 -0 -2 -6 -5 -7 -8 -1 0 -9 -12 -15 -22 -17 -7 -6 -10 -11 -8 -9 -8 -11 -10 -10 -13 -16 -11 -11 -8 -11 -12 -8 -5 -4 -5 -5 -5 -5 -4 -2 -5 -3 -4 -2 -0 -1
-1 0 -2 -1 -1 -3 -6 -8 -6 -2 -8 -11 -14 -21 -15 -4 -5 -11 -10 -8 -7 -9 -12 -9 -11 -10 -13 -13 -8 -12 -13 -12 -7 -4 -2 -3 -2 -1 -3 -5 -5 -5 -5 -4 -5 -4 -0
-1 0 -1 0 -0 -2 -7 -8 -8 -9 -11 -10 -13 -22 -17 -3 -3 -8 -11 -9 -3 -6 -9 -11 -11 -12 -13 -11 -9 -12 -12 -12 -4 -3 -3 -1 0 -2 -3 -3 -4 -4 -3 -4 -5 -4 -2
-1 0 -1 -1 -0 -1 -6 -10 -8 -10 -11 -11 -13 -21 -19 -2 -1 -4 -5 -2 -2 -5 -6 -12 -13 -14 -14 -10 -10 -11 -12 -11 -3 -2 -4 -0 -1 -2 -1 -1 -0 -1 -2 -3 -1 1 -1
-0 -0 -1 -2 -1 -0 -5 -10 -11 -11 -10 -10 -13 -21 -17 -3 -2 -5 -5 -1 -1 -3 -8 -13 -13 -14 -13 -13 -10 -10 -11 -10 -7 -7 -3 -2 -2 -2 0 2 2 4 -1 -4 -2 2 4
-1 -1 -1 -2 -3 -0 -1 -9 -11 -10 -10 -9 -13 -20 -13 -7 -1 -6 -5 -0 0 -2 -14 -13 -12 -13 -12 -11 -10 -9 -9 -10 -9 -9 -5 -6 -6 -2 2 1 0 3 -2 -4 -2 2 5
-1 -2 -1 -2 -3 -3 -0 -6 -11 -10 -9 -10 -13 -20 -13 -3 -1 -4 -5 0 -1 -7 -18 -8 -11 -12 -11 -11 -10 -8 -8 -9 -9 -8 -8 -8 -7 -0 1 1 1 0 1 -5 -3 2 5
-2 -1 -1 -1 -1 -3 -1 -2 -9 -8 -8 -9 -13 -18 -18 -6 -2 -5 -1 1 -6 -11 -11 -9 -12 -12 -10 -9 -9 -7 -6 -6 -5 -4 -5 -6 -6 -5 0 2 0 2 3 1 3 1 4
0 -2 -2 -1 -1 -2 -2 -1 -7 -7 -7 -10 -13 -16 -21 -19 -6 -8 1 -5 -13 -11 -6 -12 -12 -10 -8 -9 -9 -7 -6 -4 -6 -6 -4 -2 -1 -3 -2 2 4 3 2 1 2 4 2
-2 -1 -2 -2 -1 -1 -2 -1 -4 -3 -6 -9 -13 -16 -21 -15 -11 -5 1 -7 -9 -8 -7 -11 -9 -9 -8 -8 -7 -6 -5 -4 -4 -5 -3 -2 -1 -6 -5 -3 1 3 4 2 4 3 4
-2 -3 -1 -2 -1 -2 -2 -1 -2 -2 -4 -9 -12 -14 -7 -9 -9 -1 -4 -6 -5 -6 -11 -11 -8 -8 -7 -7 -6 -5 -6 -5 -4 -6 -6 -5 -1 -5 -4 -5 -5 -1 -0 5 2 -0 4
-0 -1 -3 -2 -2 -2 -2 -1 -2 -3 -3 -8 -11 -6 -3 -2 -7 0 -5 -7 -4 -7 -9 -9 -7 -7 -7 -7 -5 -4 -6 -6 -5 -5 -5 -5 -2 -2 -3 -2 -3 -2 -2 1 4 3 4
-0 -1 -1 -3 -2 -2 -2 -1 -2 -3 -2 -6 -11 -4 0 0 -1 -3 -5 -2 -4 -7 -8 -9 -9 -8 -7 -8 -5 -4 -6 -6 -7 -6 -3 -4 -1 0 -1 -4 -7 -4 -2 -2 0 2 -2
-0 -0 -1 -2 -2 -2 -2 -2 -1 -3 -3 -6 -4 -0 2 -2 -5 -3 -3 -2 -5 -8 -9 -8 -6 -9 -9 -8 -5 -5 -6 -5 -7 -6 -5 -4 -3 -3 -6 -8 -7 -4 -3 -4 -0 -1 1
0 -0 -0 -1 -2 -3 -2 -2 -1 -3 -3 -6 -1 -2 -1 -2 -3 -4 -3 -3 -4 -6 -8 -8 -9 -9 -7 -6 -6 -5 -5 -6 -7 -7 -6 -7 -3 -3 -3 -5 -5 -4 -5 -5 -2 -1 -0
-1 0 -1 -0 -1 -3 -3 -2 -1 -3 -3 -4 -0 -2 -2 -4 -3 -3 -4 -4 -4 -4 -6 -7 -8 -8 -7 -6 -4 -4 -5 -6 -7 -5 -7 -6 -4 -3 -3 -5 -5 -4 -5 -4 -5 -5 -2
-2 -0 0 -1 -0 -2 -3 -3 -2 -2 -2 -3 -1 -2 -3 -5 -3 -2 -2 -2 -3 -5 -4 -6 -6 -7 -6 -5 -6 -5 -6 -6 -6 -7 -7 -6 -5 -5 -7 -6 -5 -4 -3 -5 -3 -3 -3
-4 -2 -1 -1 -0 -2 -3 -3 -2 -2 -2 -1 -4 -2 -2 -3 -4 -2 -2 -2 -3 -5 -6 -7 -7 -6 -6 -7 -9 -8 -7 -7 -7 -6 -6 -5 -6 -6 -7 -6 -6 -6 -6 -4 -6 -6 -5
-5 -4 -2 -1 -1 -1 -2 -4 -3 -2 -2 -2 -4 -3 -3 -4 -3 -3 -4 -4 -3 -4 -5 -6 -7 -7 -8 -8 -8 -7 -8 -8 -7 -5 -7 -5 -5 -7 -8 -6 -11 -7 -7 -6 -7 -7 -8
-5 -5 -3 -1 -1 -1 -2 -4 -3 -2 -1 -2 -6 -4 -3 -6 -3 -3 -4 -3 -5 -4 -5 -7 -8 -8 -8 -7 -6 -9 -9 -8 -11 -7 -4 -6 -5 -10 -7 -5 -7 -3 -5 -4 -4 -5 -8
-5 -6 -4 -2 -1 -1 -2 -4 -3 -3 -1 -2 -4 -2 -3 -5 -5 -4 -3 -4 -4 -4 -5 -5 -6 -8 -7 -6 -7 -10 -9 -8 -4 -4 -5 -6 -6 -6 -11 -7 -5 -8 -7 -7 -6 -2 -7
-7 -5 -5 -4 -1 -1 -1 -4 -4 -3 -1 -1 -2 -1 -1 -4 -6 -4 -4 -3 -5 -5 -4 -5 -5 -6 -6 -8 -11 -7 -5 -5 -3 -4 -3 -4 -9 -7 -11 -8 -5 -7 -7 -8 -5 -5 -8
-6 -7 -5 -5 -3 -1 -1 -3 -4 -3 -1 -1 -2 -3 -1 -3 -4 -5 -4 -5 -5 -6 -3 -5 -4 -5 -6 -7 -7 -8 -6 -3 -2 -5 -5 -4 -6 -7 -8 -8 -4 -7 -8 -7 -8 -10 -7
-6 -7 -6 -5 -4 -1 -1 -3 -3 -3 -1 -1 -1 -4 -1 -2 -4 -4 -4 -4 -5 -6 -6 -5 -5 -5 -6 -6 -7 -7 -4 -5 -3 -4 -7 -4 -5 -5 -5 -5 -8 -7 -9 -10 -8 -6 -5

GFSGBSN_850_dewp_258.txt.gz
Dewpoint
-3 -8 -15 -19 -20 -18 -16 -16 -16 -14 -15 -17 -20 -21 -20 -18 -15 -15 -18 -17 -13 -12 -12 -14 -14 -11 -10 -12 -10 -13 -13 -10 -8 -8 -8 -9 -10 -11 -12 -13 -13 -11 -8 -6 -8 -8 -6
-10 -14 -15 -14 -12 -13 -13 -13 -13 -13 -13 -14 -17 -22 -21 -15 -11 -13 -19 -18 -13 -14 -13 -14 -15 -14 -11 -11 -11 -12 -12 -9 -9 -8 -8 -8 -7 -8 -10 -11 -10 -9 -10 -12 -13 -14 -10
-9 -13 -7 -3 -1 -5 -10 -12 -12 -9 -8 -11 -14 -22 -20 -11 -9 -12 -18 -17 -12 -15 -15 -14 -13 -10 -12 -10 -9 -10 -10 -11 -10 -7 -7 -6 -6 -9 -8 -10 -8 -9 -11 -14 -12 -10 -9
-8 -9 -1 0 0 -3 -5 -2 -6 1 1 -9 -13 -21 -20 -10 -10 -13 -16 -16 -11 -13 -16 -17 -15 -10 -11 -10 -9 -11 -11 -13 -8 -6 -5 -5 -5 -7 -8 -7 -9 -10 -11 -13 -13 -11 -12
-9 -3 -1 -0 -1 -2 -2 -4 -5 1 1 -10 -12 -19 -20 -11 -11 -14 -16 -17 -14 -13 -15 -16 -15 -11 -11 -10 -11 -12 -11 -10 -9 -7 -6 -5 -6 -7 -8 -9 -12 -11 -9 -9 -10 -12 -10
-5 -1 0 -1 -2 -0 -1 -4 -4 -1 0 -8 -12 -18 -20 -11 -12 -15 -14 -14 -13 -15 -14 -15 -15 -12 -11 -10 -11 -12 -11 -10 -8 -8 -7 -6 -7 -10 -8 -7 -9 -5 -5 -6 -7 -9 -9
-0 -2 0 -1 -1 -1 -0 -1 -6 -4 -0 -8 -10 -17 -20 -10 -12 -16 -14 -12 -9 -9 -9 -9 -9 -12 -9 -9 -11 -13 -12 -10 -10 -11 -9 -6 -9 -4 -4 -4 -4 -3 -3 -4 -5 -7 -5
-1 -1 -2 -0 -1 -1 -1 -1 -4 -7 -6 -10 -11 -15 -21 -10 -10 -14 -13 -5 -10 -7 -10 -13 -13 -10 -9 -10 -12 -12 -12 -12 -12 -12 -10 -9 -6 -7 -8 -6 -5 -4 -3 -3 -5 -5 -4
-1 -3 -4 -1 -1 -1 -1 -0 -4 -10 -10 -11 -10 -14 -20 -9 -8 -10 -13 -12 -11 -11 -9 -12 -10 -12 -10 -10 -10 -11 -11 -10 -11 -12 -8 -9 -8 -9 -6 -5 -3 -2 -1 -2 -2 -3 -5
-1 -3 -2 -1 -1 -1 -2 -1 -4 -11 -13 -10 -10 -13 -19 -6 -6 -11 -3 -8 -9 -10 -10 -13 -13 -12 -12 -10 -10 -10 -10 -10 -12 -10 -9 -9 -10 -7 -5 -4 -2 1 -3 -2 -2 -2 -2
-2 -1 -3 -1 -1 -1 -2 -2 -1 -8 -13 -12 -10 -13 -17 -7 -4 -3 -4 -4 -8 -12 3 -13 -14 -12 -11 -12 -11 -10 -10 -11 -11 -9 -8 -8 -8 -4 -2 -3 -3 1 -1 -1 -1 -3 -4
-2 -2 -2 -3 -1 -1 -1 -2 -1 -4 -12 -12 -10 -13 -14 -7 -6 -9 -2 -3 -7 -0 2 -10 -13 -12 -12 -11 -10 -10 -10 -9 -9 -10 -9 -9 -8 -6 -4 -5 -2 -2 -1 -4 -4 -4 1
-1 -2 -1 -1 -3 -1 -1 -2 -2 -2 -10 -10 -11 -14 -17 -4 0 -8 -2 -2 1 5 -10 -9 -12 -12 -12 -11 -10 -10 -9 -9 -8 -10 -9 -9 -8 -8 -8 -3 -3 -3 1 -1 -2 1 -2
0 0 -2 -3 -1 -2 -1 -2 -2 -1 -5 -7 -10 -14 -19 -5 -3 -7 0 -4 1 -6 -10 -13 -13 -11 -11 -11 -10 -9 -9 -9 -9 -10 -10 -7 -5 -7 -8 -6 -5 -0 3 5 3 -1 -2
-0 -0 -0 -1 -3 -0 -1 -2 -2 -1 -3 -4 -8 -13 -17 -17 -4 -5 -0 5 7 -11 -10 -13 -12 -10 -8 -9 -9 -9 -7 -7 -8 -9 -7 -6 -5 -9 -9 -8 -9 -5 -2 -2 3 1 3
-0 0 0 -1 -2 -1 -1 -2 -2 -2 -2 -2 -3 -12 -10 -20 -14 -2 0 4 -7 -10 -12 -13 -12 -12 -9 -9 -8 -8 -7 -7 -7 -8 -8 -6 -5 -7 -8 -9 -11 -7 -7 3 3 5 3
-2 -0 0 0 -0 -1 -2 -2 -2 -2 -2 -2 -4 -8 -8 -16 -9 -2 3 -2 -7 -8 -11 -12 -12 -10 -11 -8 -9 -6 -8 -8 -7 -9 -8 -8 -5 -6 -8 -5 -7 -5 -3 -1 2 1 4
-3 -2 -0 0 0 0 -1 -2 -2 -3 -1 -2 -4 -2 -4 -10 -4 -0 2 -7 -8 -8 -8 -10 -11 -9 -9 -9 -7 -6 -7 -8 -7 -8 -9 -8 -5 -4 -7 -8 -10 -7 -5 -3 3 2 2
-4 -4 -2 -0 0 0 0 -0 -2 -3 -1 -1 -5 -2 -1 -2 1 1 -1 -4 -5 -7 -8 -9 -9 -10 -9 -8 -4 -6 -7 -6 -7 -8 -8 -8 -3 -4 -6 -6 -10 -7 -7 -5 -3 2 2
-6 -5 -5 -2 -1 0 0 -0 -1 -3 -2 -1 -3 1 -0 -0 -3 -7 -6 -4 -3 -6 -8 -9 -9 -9 -8 -7 -7 -4 -6 -5 -6 -8 -6 -6 -7 -7 -6 -6 -8 -7 -7 -5 -4 -1 -2
-6 -5 -6 -3 -2 -1 0 0 -0 -2 -2 -1 -3 0 -2 0 -0 -5 -9 -8 -7 -5 -8 -9 -8 -9 -8 -2 -5 -6 -7 -6 -6 -7 -7 -6 -5 -7 -8 -9 -8 -6 -5 -5 -5 -6 -2
-7 -6 -7 -6 -5 -2 -0 0 -0 -2 -4 -1 -2 -0 -1 -4 -3 -3 -5 -6 -8 -8 -6 -6 -7 -8 -8 -6 -7 -2 -6 -7 -7 -6 -6 -6 -4 -7 -4 -9 -7 -5 -5 -5 -5 -5 -4
-6 -8 -8 -6 -5 -4 -2 -1 -0 -1 -3 -1 -2 -2 -2 -3 -2 -1 -2 -5 -8 -7 -7 -9 -8 -7 -7 -9 -9 -8 -8 -8 -8 -7 -6 -4 -3 -3 -3 -9 -6 -2 -5 -6 -6 -6 -6
-7 -7 -8 -6 -6 -5 -5 -2 -1 -1 -3 -1 -2 -4 -1 -0 -3 -2 -4 -6 -6 -7 -6 -7 -8 -8 -8 -6 -6 -6 -6 -6 -6 -6 -7 -5 -5 -3 -2 -7 1 -5 -8 -8 -7 -7 -8
-7 -7 -7 -8 -7 -6 -5 -4 -2 -1 -1 -1 -2 -4 -3 0 -4 -4 -4 -5 -7 -6 -6 -6 -7 -8 -6 -7 -3 -1 -3 -3 -4 -6 -6 -7 -5 -0 -0 -2 -7 -9 -8 -6 -6 -6 -9
-7 -7 -7 -6 -6 -7 -6 -4 -3 -3 -1 -1 -1 -3 -5 -1 -3 -5 -5 -6 -4 -3 -3 -4 -5 -4 -6 -5 -1 -1 -2 -4 -3 -3 -6 -7 -6 -3 -0 -0 -3 -7 -8 -8 -7 -4 -8
-8 -7 -7 -7 -6 -7 -7 -8 -4 -3 -2 -1 -1 -2 -4 -1 -6 -6 -5 -3 -6 -5 -3 -4 -4 -5 -5 0 1 -0 -3 -10 -5 -4 -1 -3 -2 -0 -1 -1 -6 -10 -8 -7 -3 -6 -8
-8 -8 -8 -7 -6 -8 -7 -7 -5 -4 -4 -1 -1 -2 -3 -3 -3 -4 -4 -5 -5 -5 -0 -5 -4 -3 -3 0 -0 0 -1 -5 -7 -9 -5 -3 -1 -1 -2 -0 -2 -10 -7 -6 -7 -8 -9
-9 -8 -8 -7 -7 -8 -7 -7 -5 -4 -4 -1 -1 -2 -3 -4 -3 -5 -4 -4 -6 -6 -6 -4 -4 -5 -4 -1 -1 -2 -2 -3 -6 -2 -8 -5 -6 -2 -4 -5 -8 -9 -9 -8 -8 -9 -8

GFSGBSN_850_dewp_261.txt.gz
Dewpoint
-5 -12 -16 -19 -17 -14 -14 -13 -15 -16 -16 -17 -21 -24 -24 -21 -16 -16 -18 -16 -12 -11 -13 -11 -9 -9 -9 -11 -11 -9 -10 -10 -10 -10 -10 -10 -12 -14 -13 -15 -14 -15 -14 -9 -8 -12 -14
-8 -15 -16 -16 -13 -10 -11 -13 -13 -13 -14 -15 -17 -23 -23 -17 -13 -14 -19 -16 -12 -13 -14 -15 -12 -11 -9 -11 -8 -10 -11 -11 -10 -9 -9 -9 -10 -11 -13 -12 -13 -10 -12 -14 -16 -17 -16
-9 -13 -12 -8 -4 -7 -10 -10 -10 -8 -3 -9 -15 -21 -22 -15 -12 -14 -20 -15 -13 -13 -13 -11 -10 -10 -9 -9 -10 -13 -12 -12 -9 -8 -9 -8 -8 -10 -11 -11 -11 -11 -12 -17 -16 -13 -13
-8 -11 -5 -0 -0 -2 -6 -8 -9 -1 0 -9 -14 -17 -22 -13 -11 -14 -17 -13 -13 -14 -15 -14 -11 -8 -10 -11 -12 -14 -13 -13 -9 -8 -8 -8 -8 -9 -9 -9 -11 -11 -12 -12 -13 -14 -13
-5 -7 -1 0 -1 -3 -3 -5 -8 -7 -1 -4 -13 -15 -21 -13 -11 -13 -15 -12 -12 -14 -17 -16 -7 -8 -11 -11 -13 -15 -12 -12 -11 -8 -7 -6 -8 -9 -10 -12 -12 -13 -10 -9 -10 -13 -13
-0 -5 0 1 -1 -2 -1 -4 -8 -9 -5 -5 -11 -14 -21 -11 -11 -14 -14 -14 -14 -12 -15 -15 -12 -10 -11 -12 -12 -15 -13 -10 -10 -9 -8 -6 -9 -11 -11 -10 -8 -6 -7 -8 -8 -10 -11
-1 -3 -1 0 -1 -1 -1 -2 -5 -10 -12 -13 -12 -13 -21 -9 -10 -14 -12 -8 -8 -7 -9 -9 -11 -12 -12 -12 -12 -14 -14 -12 -12 -13 -9 -8 -10 -8 -9 -7 -7 -6 -6 -7 -9 -9 -7
-1 -1 -2 -1 -0 -1 -1 -1 -3 -8 -12 -14 -15 -14 -21 -10 -9 -14 -9 -4 -1 -2 -10 -11 -11 -11 -10 -10 -12 -13 -13 -13 -13 -11 -9 -11 -8 -10 -9 -7 -6 -5 -4 -6 -8 -8 -6
-2 -1 -1 -2 -1 -1 -1 -0 -0 -4 -12 -15 -16 -15 -22 -11 -8 -6 -1 -0 -12 -5 -7 -11 -11 -12 -10 -11 -12 -12 -12 -13 -13 -12 -11 -10 -9 -9 -7 -6 -4 -4 -4 -4 -4 -6 -9
-2 -2 -2 -4 -2 -1 -2 -2 -1 -2 -8 -13 -15 -15 -23 -9 -6 -1 -1 -9 -13 -12 -4 -10 -13 -12 -12 -11 -11 -12 -12 -11 -13 -12 -11 -10 -10 -6 -5 -5 -5 -2 -5 -3 -4 -4 -5
-2 -2 -2 -3 -0 -1 -1 -1 -2 -1 -5 -11 -13 -15 -23 -9 2 -3 2 -3 -12 -10 8 -12 -14 -13 -13 -12 -13 -12 -11 -13 -12 -9 -7 -9 -8 -6 -4 -5 -5 -3 -3 -3 -3 -5 -6
0 -1 -3 -1 -3 -2 -1 -1 -2 -1 -2 -8 -10 -13 -21 -12 0 1 -0 -5 -8 2 6 -11 -14 -12 -12 -12 -13 -12 -11 -12 -12 -11 -10 -10 -9 -7 -7 -7 -4 -4 -4 -3 -4 -5 1
1 0 -2 -2 -2 -2 -2 -1 -2 -1 -2 -7 -7 -11 -18 -9 1 -7 -3 -0 4 7 -9 -10 -13 -12 -13 -12 -11 -11 -11 -10 -10 -8 -10 -9 -9 -8 -8 -6 -6 -5 -2 -1 -1 2 -0
-0 1 0 -1 -1 -0 -2 -2 -1 -3 -1 -6 -6 -9 -10 -2 -1 -6 3 -1 5 1 -9 -14 -14 -13 -12 -13 -11 -11 -10 -10 -12 -12 -13 -9 -4 -9 -10 -8 -9 -6 -1 1 2 -0 -3
0 0 1 1 -0 -2 -1 -2 -2 -2 -1 -3 -5 -4 -3 -8 -7 -6 1 7 6 -6 -12 -13 -13 -11 -10 -11 -10 -10 -8 -9 -9 -10 -6 -7 -5 -9 -10 -10 -10 -6 -4 -3 2 -0 4
-1 -0 0 1 1 -1 -2 -1 -2 -2 -1 -3 -1 -3 -7 -7 -6 0 1 4 -6 -11 -13 -14 -10 -11 -8 -10 -9 -9 -8 -9 -8 -10 -9 -7 -4 -9 -11 -9 -11 -8 -7 0 2 5 4
-4 -2 -1 0 0 0 -1 0 -1 -2 -2 -2 -1 -7 -3 -15 -12 -4 5 2 -8 -10 -13 -12 -12 -11 -11 -10 -9 -7 -8 -9 -8 -10 -9 -10 -5 -6 -10 -6 -8 -6 -4 -1 2 1 4
-4 -4 -3 -1 -0 0 0 -0 -1 -2 -3 -2 -3 -1 1 -19 -4 -3 3 -5 -10 -10 -11 -11 -10 -11 -10 -9 -9 -7 -8 -8 -8 -10 -8 -8 -6 -4 -8 -10 -12 -9 -6 -4 4 4 2
-7 -6 -5 -5 -2 -0 0 0 -0 -1 -3 -2 -3 -4 0 -3 3 3 -1 -5 -7 -9 -9 -9 -10 -10 -11 -8 -5 -7 -8 -6 -7 -8 -7 -7 -1 -2 -4 -6 -9 -9 -8 -6 -3 0 3
-5 -6 -6 -5 -5 -2 -1 0 -0 -1 -2 -2 -4 2 -0 -2 -4 -3 -4 -4 -6 -8 -10 -10 -10 -10 -8 -7 -6 -3 -6 -6 -7 -8 -9 -7 -6 -5 -3 -6 -9 -9 -9 -8 -6 1 -2
-6 -6 -6 -6 -5 -5 -2 -0 0 -0 -2 -2 -1 0 -2 0 0 -4 -6 -8 -8 -6 -8 -9 -8 -8 -8 1 -5 -5 -6 -5 -6 -4 -8 -5 -3 -7 -8 -10 -11 -10 -9 -8 -7 -6 -4
-6 -7 -6 -6 -6 -6 -5 -2 -1 -0 -2 -2 -1 -2 -6 -6 -4 -3 -5 -5 -8 -8 -8 -7 -7 -8 -8 -5 -5 -4 -6 -5 -5 -7 -6 -6 -2 -7 -2 -10 -10 -8 -8 -8 -8 -8 -7
-6 -7 -7 -7 -7 -7 -6 -5 -1 -1 -1 -1 -1 -5 -3 -4 -3 -3 -1 -7 -9 -9 -8 -9 -9 -7 -7 -8 -9 -9 -8 -8 -8 -6 -5 -3 -2 -4 0 -9 -9 -3 -5 -7 -7 -8 -8
-7 -6 -7 -7 -6 -6 -8 -6 -3 -1 -1 -1 -1 -4 -4 1 -5 -2 -4 -6 -8 -9 -6 -8 -9 -8 -9 -7 -7 -6 -7 -7 -8 -8 -7 -4 -4 -3 2 -6 2 -4 -9 -9 -8 -8 -10
-7 -6 -6 -6 -6 -6 -6 -7 -6 -3 -3 -2 -0 -2 -5 1 -5 -6 -5 -5 -7 -9 -7 -8 -8 -8 -6 -7 -3 1 0 2 1 -5 -5 -6 -5 2 2 -1 -5 -9 -9 -8 -8 -7 -10
-7 -7 -6 -7 -7 -6 -6 -7 -6 -4 -4 -2 -1 -2 -5 -2 -1 -7 -6 -6 -3 -5 -4 -6 -5 -5 -7 -6 0 2 2 -1 -2 -5 -7 -7 -6 -1 1 2 0 -7 -11 -11 -9 -4 -9
-5 -8 -9 -6 -7 -8 -6 -6 -8 -6 -5 -3 -2 -1 -2 -2 -5 -6 -5 -4 -7 -5 -3 -4 -4 -5 -6 1 3 2 -2 -7 -3 -3 -3 -3 0 1 1 0 -4 -11 -10 -9 -3 -4 -9
-5 -6 -9 -8 -8 -8 -6 -6 -6 -6 -6 -3 -4 -1 -1 -2 -4 -5 -6 -6 -7 -6 1 -4 -2 -2 -1 2 0 1 1 -6 -7 -7 -4 -3 -1 0 -0 1 1 -11 -8 -6 -8 -7 -9
-4 -5 -9 -9 -7 -10 -7 -7 -6 -8 -6 -5 -4 -3 -1 -2 -3 -4 -4 -5 -4 -7 -5 -4 -4 -4 -4 0 -1 -1 -1 -2 -6 -3 -7 -4 -4 -1 -2 -2 -7 -9 -8 -8 -7 -8 -9

GFSGBSN_850_dewp_264.txt.gz
Dewpoint
-5 -10 -17 -20 -21 -18 -17 -16 -15 -14 -14 -16 -20 -24 -24 -19 -15 -18 -20 -18 -14 -13 -11 -12 -14 -10 -7 -6 -10 -10 -12 -12 -10 -10 -10 -11 -13 -13 -13 -14 -12 -11 -15 -10 -9 -13 -16
-3 -14 -17 -17 -15 -15 -14 -15 -15 -14 -13 -15 -17 -22 -23 -17 -14 -16 -20 -16 -13 -14 -11 -10 -10 -11 -8 -9 -9 -13 -13 -12 -10 -9 -9 -9 -11 -11 -14 -12 -14 -10 -12 -14 -16 -18 -17
-3 -12 -15 -10 -6 -9 -11 -13 -12 -13 -15 -17 -18 -21 -24 -17 -13 -16 -20 -15 -14 -14 -17 -10 -9 -7 -9 -9 -11 -14 -13 -12 -9 -9 -9 -9 -9 -11 -11 -11 -11 -13 -14 -17 -18 -14 -14
-3 -10 -11 -3 0 -1 -5 -11 -12 -13 -13 -16 -17 -19 -25 -17 -14 -15 -18 -14 -15 -15 -12 -13 -8 -4 -10 -12 -13 -15 -13 -13 -10 -9 -9 -8 -8 -8 -10 -10 -10 -12 -13 -12 -13 -14 -14
-1 -9 -6 -0 -1 -2 -5 -5 -10 -11 -12 -15 -17 -18 -25 -18 -14 -15 -17 -12 -16 -16 -18 -14 -5 -4 -10 -12 -13 -15 -13 -12 -11 -9 -8 -7 -7 -10 -9 -9 -11 -11 -10 -10 -11 -13 -12
0 -2 -3 1 1 -2 -2 -2 -5 -9 -11 -15 -15 -17 -24 -18 -14 -15 -17 -13 -15 -17 -19 -12 -12 -8 -12 -13 -13 -15 -14 -11 -10 -9 -7 -6 -7 -12 -10 -9 -8 -7 -8 -9 -9 -11 -10
-1 -0 -3 -1 1 -1 -1 -1 -3 -4 -10 -13 -15 -16 -23 -20 -14 -15 -15 -11 -8 -3 -8 -9 -10 -11 -13 -14 -12 -15 -14 -12 -12 -11 -9 -10 -11 -9 -8 -8 -8 -7 -7 -8 -10 -12 -9
-2 -1 -1 -3 -1 -0 -1 -1 -1 -3 -7 -13 -15 -16 -21 -21 -15 -15 -5 1 -1 0 -5 -10 -12 -11 -11 -11 -13 -14 -13 -13 -13 -11 -9 -12 -9 -9 -9 -9 -7 -7 -7 -8 -10 -9 -8
-1 -2 -2 -2 -2 -0 -0 -1 -1 -0 -4 -12 -15 -15 -20 -21 -15 -14 -1 0 -1 -0 -1 -11 -12 -13 -11 -11 -13 -13 -13 -15 -13 -12 -11 -9 -10 -9 -8 -7 -7 -8 -5 -5 -5 -6 -9
-1 -2 -2 -1 -2 -2 -1 -1 -2 -1 -3 -11 -14 -14 -21 -12 -9 -1 -0 0 -1 -9 2 -9 -13 -13 -12 -11 -11 -13 -13 -11 -14 -12 -11 -10 -10 -8 -7 -8 -6 -4 -5 -4 -4 -4 -6
-0 -1 -2 -2 -1 -4 -1 -1 -2 -2 -2 -8 -13 -13 -21 -6 3 -3 3 -0 -9 -8 8 -8 -14 -13 -13 -11 -13 -12 -13 -13 -12 -9 -5 -9 -8 -7 -7 -7 -6 -4 -5 -4 -4 -3 -6
1 1 -0 -1 -2 -2 -2 -1 -1 -2 -3 -6 -13 -12 -21 -11 -1 2 1 -6 -12 3 4 -10 -14 -14 -13 -14 -14 -13 -12 -13 -12 -11 -11 -11 -10 -9 -8 -8 -5 -7 -5 -5 -4 -4 2
0 1 1 0 -2 -2 -3 -3 -2 -2 -3 -4 -12 -11 -10 -1 2 -0 -0 0 4 7 -7 -10 -13 -13 -12 -12 -13 -12 -11 -9 -8 -7 -7 -9 -10 -10 -9 -9 -7 -8 -3 -1 -1 3 4
-1 0 0 1 -0 -2 -1 -1 -2 -1 -2 -3 -10 -10 -18 -6 1 -2 4 -1 6 3 -3 -13 -15 -12 -12 -13 -12 -12 -11 -11 -13 -12 -14 -8 -4 -11 -11 -9 -9 -7 -5 1 2 1 -1
-3 -1 0 0 1 0 -1 -0 -2 -2 -2 -4 -7 -6 -12 -12 -5 -2 3 6 6 -1 -10 -13 -14 -12 -12 -13 -10 -11 -9 -9 -10 -10 -5 -9 -5 -11 -11 -10 -12 -7 -3 -6 1 0 2
-5 -3 -1 -0 0 1 1 -1 -1 -1 -2 -3 -1 -1 -2 -4 -9 1 4 5 1 -7 -14 -14 -10 -12 -9 -10 -9 -9 -8 -10 -9 -11 -8 -8 -4 -11 -12 -9 -11 -9 -7 0 2 4 3
-4 -3 -3 -2 -1 0 1 0 -1 -0 -2 -3 0 -2 -1 -5 -8 -1 5 4 -2 -10 -12 -13 -12 -10 -11 -10 -11 -8 -8 -9 -9 -11 -9 -10 -4 -5 -10 -7 -9 -6 -5 -1 2 2 2
-7 -6 -3 -3 -2 -1 0 1 0 0 -2 -2 -2 1 2 -5 -4 -2 3 -1 -6 -12 -12 -12 -10 -10 -10 -10 -10 -8 -7 -8 -9 -10 -8 -8 -5 -4 -8 -11 -14 -9 -6 -5 3 5 3
-6 -6 -6 -5 -4 -3 -1 0 0 0 -1 -1 -2 -2 2 -1 1 3 -2 -3 -4 -9 -11 -10 -9 -10 -11 -9 -4 -8 -8 -6 -8 -9 -7 -8 -1 -1 -4 -6 -9 -9 -7 -7 -4 1 4
-6 -7 -6 -6 -6 -4 -3 -1 -1 -0 -1 -2 -2 2 1 -2 -6 -5 -2 -1 -0 -8 -9 -11 -10 -11 -9 -8 -6 -3 -5 -6 -8 -8 -9 -8 -4 -2 -1 -5 -7 -8 -9 -8 -6 0 1
-6 -6 -6 -6 -6 -6 -6 -3 -1 -0 -0 -2 -0 1 -1 2 -0 -3 -4 -5 -3 -6 -9 -10 -9 -9 -8 1 -4 -5 -6 -5 -7 -6 -11 -4 -2 -6 -7 -10 -11 -12 -11 -10 -7 -5 -3
-6 -6 -6 -7 -7 -6 -6 -4 -3 -1 -0 -1 -1 1 -4 -4 -3 -3 -2 -1 -6 -7 -8 -8 -7 -8 -8 -4 -5 -2 -6 -4 -4 -5 -7 -6 -1 -5 -1 -8 -11 -11 -11 -11 -9 -9 -10
-5 -6 -6 -6 -7 -7 -6 -7 -5 -2 -1 -0 -1 -2 -3 -1 -4 -3 -1 -3 -4 -8 -8 -9 -8 -6 -7 -7 -8 -9 -8 -6 -7 -5 -5 -2 0 -3 1 -9 -9 -3 -7 -9 -9 -9 -8
-5 -5 -6 -6 -6 -6 -6 -7 -7 -4 -3 -2 -1 -0 -3 -0 -1 -2 -5 -5 -5 -7 -4 -8 -9 -6 -8 -7 -6 -5 -6 -7 -7 -6 -6 -3 -2 0 3 -3 0 -4 -9 -9 -9 -9 -10
-5 -5 -5 -6 -6 -5 -6 -6 -6 -7 -4 -3 -2 -0 -1 0 -4 -3 -4 -5 -6 -8 -8 -7 -8 -9 -7 -5 -1 2 1 -1 -0 -4 -6 -6 -2 2 3 -1 -4 -7 -8 -9 -8 -8 -10
-5 -6 -6 -5 -7 -7 -6 -6 -6 -7 -5 -4 -3 -2 -1 0 -1 -6 -4 -5 -2 -2 -4 -7 -7 -5 -6 -2 2 1 1 -2 -1 -3 -6 -6 -5 1 2 2 2 -7 -11 -11 -11 -4 -10
-5 -6 -5 -6 -7 -9 -7 -7 -6 -6 -5 -5 -4 -3 -2 0 -2 -5 -4 -2 -5 -4 -2 -6 -3 -3 -5 3 4 2 -1 -6 -3 -3 -2 -1 1 3 2 1 -3 -9 -11 -11 -4 -3 -9
-5 -5 -7 -6 -6 -7 -9 -7 -8 -6 -7 -5 -4 -5 -3 -1 -1 -3 -5 -5 -5 -5 0 -3 -2 -2 -1 2 3 2 2 -2 -4 -6 -4 -2 0 1 1 2 1 -8 -10 -6 -7 -7 -8
-6 -3 -5 -6 -5 -6 -10 -7 -8 -7 -6 -6 -4 -6 -4 -4 -0 -3 -5 -4 -5 -5 -4 -3 -3 -3 -2 2 1 2 2 1 -3 -1 -6 -3 -2 1 -1 -1 -6 -9 -9 -9 -5 -7 -8